Time,TemperatureF,DewpointF,PressureIn,WindDirection,WindDirectionDegrees,WindSpeedMPH,WindSpeedGustMPH,Humidity,HourlyPrecipIn,Conditions,Clouds,dailyrainin,SoftwareType,DateUTC
2013-06-11 00:01:00,59.7,55.9,30.03,ESE,112,0.0,2.2,87,0.20,,,0.65,WUHU21623XXSP,2013-06-11 04:01:00,
2013-06-11 00:02:00,59.7,55.9,30.03,NE,45,0.0,2.2,87,0.20,,,0.00,WUHU21623XXSP,2013-06-11 04:02:00,
2013-06-11 00:06:00,59.7,55.9,30.02,ESE,112,0.0,0.0,87,0.18,,,0.00,WUHU21623XXSP,2013-06-11 04:06:00,
2013-06-11 00:07:00,59.7,55.9,30.02,ESE,112,0.0,0.0,87,0.18,,,0.00,WUHU21623XXSP,2013-06-11 04:07:00,
2013-06-11 00:11:00,59.7,55.9,30.02,East,90,0.0,0.0,87,0.20,,,0.02,WUHU21623XXSP,2013-06-11 04:11:00,
2013-06-11 00:12:00,59.7,55.9,30.02,East,90,0.0,0.0,87,0.20,,,0.02,WUHU21623XXSP,2013-06-11 04:12:00,
2013-06-11 00:16:00,59.7,55.9,30.02,ESE,112,0.0,0.0,87,0.18,,,0.02,WUHU21623XXSP,2013-06-11 04:16:00,
2013-06-11 00:17:00,59.7,55.9,30.02,ESE,112,1.3,1.3,87,0.20,,,0.02,WUHU21623XXSP,2013-06-11 04:17:00,
2013-06-11 00:21:00,59.5,55.7,30.02,NNE,22,0.0,3.1,87,0.18,,,0.04,WUHU21623XXSP,2013-06-11 04:21:00,
2013-06-11 00:22:00,59.5,55.7,30.02,NNE,22,0.0,3.1,87,0.18,,,0.04,WUHU21623XXSP,2013-06-11 04:22:00,
2013-06-11 00:23:00,59.5,55.7,30.02,ESE,112,0.0,3.1,87,0.20,,,0.04,WUHU21623XXSP,2013-06-11 04:23:00,
2013-06-11 00:26:00,59.5,55.7,30.02,ESE,112,0.0,3.1,87,0.20,,,0.06,WUHU21623XXSP,2013-06-11 04:26:00,
2013-06-11 00:27:00,59.5,55.7,30.02,ESE,112,0.0,3.1,87,0.20,,,0.06,WUHU21623XXSP,2013-06-11 04:27:00,
2013-06-11 00:28:00,59.5,55.7,30.02,ESE,112,0.0,3.1,87,0.20,,,0.06,WUHU21623XXSP,2013-06-11 04:28:00,
2013-06-11 00:32:00,59.5,55.7,30.01,East,90,2.2,2.2,87,0.18,,,0.06,WUHU21623XXSP,2013-06-11 04:32:00,
2013-06-11 00:33:00,59.5,55.7,30.01,East,90,2.2,2.2,87,0.18,,,0.06,WUHU21623XXSP,2013-06-11 04:33:00,
2013-06-11 00:37:00,59.5,55.7,30.01,ESE,112,1.3,2.2,87,0.18,,,0.06,WUHU21623XXSP,2013-06-11 04:37:00,
2013-06-11 00:38:00,59.5,55.7,30.01,ENE,67,1.8,2.2,87,0.18,,,0.06,WUHU21623XXSP,2013-06-11 04:38:00,
2013-06-11 00:42:00,59.5,55.7,30.00,SE,135,0.0,1.8,87,0.18,,,0.10,WUHU21623XXSP,2013-06-11 04:42:00,
2013-06-11 00:43:00,59.5,55.7,30.00,SE,135,0.0,1.8,87,0.18,,,0.10,WUHU21623XXSP,2013-06-11 04:43:00,
2013-06-11 00:44:00,59.5,55.7,30.00,SE,135,0.0,1.8,87,0.18,,,0.10,WUHU21623XXSP,2013-06-11 04:44:00,
2013-06-11 00:47:00,59.4,55.5,30.00,ESE,112,0.0,1.8,87,0.16,,,0.10,WUHU21623XXSP,2013-06-11 04:47:00,
2013-06-11 00:48:00,59.4,55.5,30.00,ESE,112,0.0,0.0,87,0.16,,,0.10,WUHU21623XXSP,2013-06-11 04:48:00,
2013-06-11 00:49:00,59.4,55.5,29.99,NNW,337,0.0,0.0,87,0.16,,,0.10,WUHU21623XXSP,2013-06-11 04:49:00,
2013-06-11 00:52:00,59.2,55.3,29.99,ENE,67,4.9,4.9,87,0.16,,,0.12,WUHU21623XXSP,2013-06-11 04:52:00,
2013-06-11 00:53:00,59.2,55.3,29.99,ENE,67,0.0,4.9,87,0.16,,,0.12,WUHU21623XXSP,2013-06-11 04:53:00,
2013-06-11 00:54:00,59.2,55.3,29.99,ENE,67,0.0,4.9,87,0.16,,,0.12,WUHU21623XXSP,2013-06-11 04:54:00,
2013-06-11 00:55:00,59.2,55.3,29.99,ESE,112,0.0,4.9,87,0.16,,,0.12,WUHU21623XXSP,2013-06-11 04:55:00,
2013-06-11 00:58:00,59.2,55.3,29.99,SE,135,0.0,4.9,87,0.12,,,0.12,WUHU21623XXSP,2013-06-11 04:58:00,
2013-06-11 00:59:00,59.2,55.3,29.99,SE,135,0.0,4.9,87,0.12,,,0.12,WUHU21623XXSP,2013-06-11 04:59:00,
2013-06-11 01:00:00,59.2,55.3,29.99,SE,135,0.0,4.9,87,0.12,,,0.12,WUHU21623XXSP,2013-06-11 05:00:00,
2013-06-11 01:03:00,59.2,55.3,29.99,SE,135,0.0,0.0,87,0.12,,,0.12,WUHU21623XXSP,2013-06-11 05:03:00,
2013-06-11 01:04:00,59.2,55.3,29.99,SE,135,0.0,0.0,87,0.12,,,0.12,WUHU21623XXSP,2013-06-11 05:04:00,
2013-06-11 01:05:00,59.0,55.1,29.98,East,90,0.0,0.0,87,0.10,,,0.12,WUHU21623XXSP,2013-06-11 05:05:00,
2013-06-11 01:08:00,59.2,55.3,29.98,East,90,0.0,0.0,87,0.10,,,0.12,WUHU21623XXSP,2013-06-11 05:08:00,
2013-06-11 01:09:00,59.2,55.3,29.98,East,90,0.0,0.0,87,0.10,,,0.12,WUHU21623XXSP,2013-06-11 05:09:00,
2013-06-11 01:11:00,58.8,55.0,29.98,ENE,67,0.0,0.0,87,0.10,,,0.12,WUHU21623XXSP,2013-06-11 05:11:00,
2013-06-11 01:13:00,58.8,55.0,29.98,East,90,4.9,4.9,87,0.08,,,0.12,WUHU21623XXSP,2013-06-11 05:13:00,
2013-06-11 01:14:00,58.8,55.0,29.98,East,90,4.9,4.9,87,0.08,,,0.12,WUHU21623XXSP,2013-06-11 05:14:00,
2013-06-11 01:15:00,58.8,55.0,29.98,SE,135,2.9,4.9,87,0.08,,,0.12,WUHU21623XXSP,2013-06-11 05:15:00,
2013-06-11 01:16:00,58.8,55.0,29.98,SE,135,2.9,4.9,87,0.08,,,0.12,WUHU21623XXSP,2013-06-11 05:16:00,
2013-06-11 01:18:00,58.8,55.3,29.97,ESE,112,0.0,4.9,88,0.08,,,0.12,WUHU21623XXSP,2013-06-11 05:18:00,
2013-06-11 01:19:00,58.8,55.3,29.97,ESE,112,0.0,4.9,88,0.08,,,0.12,WUHU21623XXSP,2013-06-11 05:19:00,
2013-06-11 01:21:00,58.8,55.3,29.97,SE,135,1.6,4.9,88,0.06,,,0.12,WUHU21623XXSP,2013-06-11 05:21:00,
2013-06-11 01:23:00,58.8,55.3,29.97,SE,135,1.6,2.9,88,0.06,,,0.12,WUHU21623XXSP,2013-06-11 05:23:00,
2013-06-11 01:24:00,58.8,55.3,29.97,SE,135,1.6,1.6,88,0.06,,,0.12,WUHU21623XXSP,2013-06-11 05:24:00,
2013-06-11 01:26:00,58.8,55.3,29.97,East,90,0.0,1.6,88,0.06,,,0.12,WUHU21623XXSP,2013-06-11 05:26:00,
2013-06-11 01:29:00,58.8,55.3,29.97,East,90,0.0,1.6,88,0.06,,,0.12,WUHU21623XXSP,2013-06-11 05:29:00,
2013-06-11 01:31:00,58.8,55.3,29.97,SSE,157,2.0,2.0,88,0.06,,,0.12,WUHU21623XXSP,2013-06-11 05:31:00,
2013-06-11 01:32:00,58.8,55.3,29.97,SSE,157,2.0,2.0,88,0.06,,,0.12,WUHU21623XXSP,2013-06-11 05:32:00,
2013-06-11 01:34:00,58.8,55.3,29.97,SE,135,0.0,2.0,88,0.06,,,0.12,WUHU21623XXSP,2013-06-11 05:34:00,
2013-06-11 01:35:00,58.8,55.3,29.97,SE,135,0.0,2.0,88,0.06,,,0.12,WUHU21623XXSP,2013-06-11 05:35:00,
2013-06-11 01:37:00,58.8,55.3,29.96,ENE,67,1.1,2.0,88,0.06,,,0.12,WUHU21623XXSP,2013-06-11 05:37:00,
2013-06-11 01:39:00,58.8,55.3,29.97,ESE,112,2.5,2.5,88,0.02,,,0.12,WUHU21623XXSP,2013-06-11 05:39:00,
2013-06-11 01:40:00,58.8,55.3,29.97,ESE,112,2.5,2.5,88,0.02,,,0.12,WUHU21623XXSP,2013-06-11 05:40:00,
2013-06-11 01:42:00,58.8,55.3,29.96,NNE,22,0.0,2.5,88,0.04,,,0.15,WUHU21623XXSP,2013-06-11 05:42:00,
2013-06-11 01:44:00,58.8,55.3,29.96,East,90,0.0,2.5,88,0.04,,,0.15,WUHU21623XXSP,2013-06-11 05:44:00,
2013-06-11 01:45:00,58.8,55.3,29.96,East,90,0.0,2.5,88,0.04,,,0.15,WUHU21623XXSP,2013-06-11 05:45:00,
2013-06-11 01:49:00,58.8,55.3,29.96,ESE,112,0.0,1.1,88,0.02,,,0.15,WUHU21623XXSP,2013-06-11 05:49:00,
2013-06-11 01:50:00,58.8,55.3,29.96,ESE,112,0.0,0.0,88,0.02,,,0.15,WUHU21623XXSP,2013-06-11 05:50:00,
2013-06-11 01:55:00,58.8,55.3,29.96,SE,135,5.8,5.8,88,0.02,,,0.15,WUHU21623XXSP,2013-06-11 05:55:00,
2013-06-11 02:00:00,58.8,55.3,29.96,ESE,112,0.0,5.8,88,0.02,,,0.15,WUHU21623XXSP,2013-06-11 06:00:00,
2013-06-11 02:01:00,58.8,55.3,29.96,ESE,112,0.0,5.8,88,0.02,,,0.15,WUHU21623XXSP,2013-06-11 06:01:00,
2013-06-11 02:05:00,58.8,55.3,29.94,ENE,67,0.0,0.0,88,0.06,,,0.17,WUHU21623XXSP,2013-06-11 06:05:00,
2013-06-11 02:06:00,58.8,55.3,29.94,ESE,112,0.0,0.0,88,0.08,,,0.19,WUHU21623XXSP,2013-06-11 06:06:00,
2013-06-11 02:07:00,58.8,55.3,29.94,ESE,112,0.0,0.0,88,0.08,,,0.19,WUHU21623XXSP,2013-06-11 06:07:00,
2013-06-11 02:10:00,58.6,55.1,29.94,SSE,157,2.2,2.2,88,0.08,,,0.21,WUHU21623XXSP,2013-06-11 06:10:00,
2013-06-11 02:11:00,58.6,55.1,29.94,SSE,157,2.2,2.2,88,0.08,,,0.21,WUHU21623XXSP,2013-06-11 06:11:00,
2013-06-11 02:12:00,58.6,55.1,29.94,SE,135,0.0,2.2,88,0.08,,,0.21,WUHU21623XXSP,2013-06-11 06:12:00,
2013-06-11 02:15:00,58.6,55.1,29.94,South,180,0.0,2.2,88,0.10,,,0.21,WUHU21623XXSP,2013-06-11 06:15:00,
2013-06-11 02:16:00,58.6,55.1,29.94,South,180,0.0,2.2,88,0.10,,,0.21,WUHU21623XXSP,2013-06-11 06:16:00,
2013-06-11 02:17:00,58.5,54.9,29.94,NE,45,3.8,3.8,88,0.10,,,0.23,WUHU21623XXSP,2013-06-11 06:17:00,
2013-06-11 02:20:00,58.5,54.9,29.94,ESE,112,0.0,3.8,88,0.10,,,0.23,WUHU21623XXSP,2013-06-11 06:20:00,
2013-06-11 02:22:00,58.3,54.8,29.93,East,90,4.5,4.5,88,0.10,,,0.23,WUHU21623XXSP,2013-06-11 06:22:00,
2013-06-11 02:23:00,58.3,54.8,29.93,NE,45,5.6,5.6,88,0.12,,,0.23,WUHU21623XXSP,2013-06-11 06:23:00,
2013-06-11 02:26:00,58.3,54.8,29.93,SE,135,1.1,5.6,88,0.12,,,0.25,WUHU21623XXSP,2013-06-11 06:26:00,
2013-06-11 02:27:00,58.3,54.8,29.93,SE,135,1.1,5.6,88,0.12,,,0.25,WUHU21623XXSP,2013-06-11 06:27:00,
2013-06-11 02:28:00,58.3,54.8,29.92,ESE,112,0.0,5.6,88,0.12,,,0.25,WUHU21623XXSP,2013-06-11 06:28:00,
2013-06-11 02:31:00,58.1,54.6,29.92,ESE,112,2.5,5.6,88,0.12,,,0.25,WUHU21623XXSP,2013-06-11 06:31:00,
2013-06-11 02:32:00,58.1,54.6,29.92,ESE,112,2.5,5.6,88,0.12,,,0.25,WUHU21623XXSP,2013-06-11 06:32:00,
2013-06-11 02:33:00,58.1,54.6,29.92,ESE,112,2.5,2.5,88,0.12,,,0.25,WUHU21623XXSP,2013-06-11 06:33:00,
2013-06-11 02:36:00,58.1,54.6,29.92,ESE,112,0.0,2.5,88,0.12,,,0.25,WUHU21623XXSP,2013-06-11 06:36:00,
2013-06-11 02:37:00,58.1,54.6,29.92,ESE,112,0.0,2.5,88,0.12,,,0.25,WUHU21623XXSP,2013-06-11 06:37:00,
2013-06-11 02:38:00,57.9,54.4,29.91,ESE,112,7.2,7.2,88,0.10,,,0.25,WUHU21623XXSP,2013-06-11 06:38:00,
2013-06-11 02:42:00,57.9,54.4,29.91,ESE,112,0.9,7.2,88,0.10,,,0.25,WUHU21623XXSP,2013-06-11 06:42:00,
2013-06-11 02:43:00,57.9,54.4,29.91,East,90,0.0,7.2,88,0.10,,,0.25,WUHU21623XXSP,2013-06-11 06:43:00,
2013-06-11 02:47:00,57.9,54.4,29.92,SE,135,9.2,9.2,88,0.10,,,0.25,WUHU21623XXSP,2013-06-11 06:47:00,
2013-06-11 02:48:00,57.9,54.4,29.92,SE,135,9.2,9.2,88,0.10,,,0.25,WUHU21623XXSP,2013-06-11 06:48:00,
2013-06-11 02:52:00,57.9,54.4,29.91,SSE,157,1.6,9.2,88,0.10,,,0.25,WUHU21623XXSP,2013-06-11 06:52:00,
2013-06-11 02:53:00,57.9,54.4,29.91,NNE,22,0.9,9.2,88,0.10,,,0.25,WUHU21623XXSP,2013-06-11 06:53:00,
2013-06-11 02:54:00,57.9,54.4,29.91,NNE,22,0.9,9.2,88,0.10,,,0.25,WUHU21623XXSP,2013-06-11 06:54:00,
2013-06-11 02:57:00,57.7,54.2,29.91,ESE,112,1.8,2.2,88,0.10,,,0.25,WUHU21623XXSP,2013-06-11 06:57:00,
2013-06-11 02:58:00,57.7,54.2,29.91,ESE,112,1.8,2.2,88,0.10,,,0.25,WUHU21623XXSP,2013-06-11 06:58:00,
2013-06-11 02:59:00,57.7,54.2,29.90,NNE,22,1.1,1.8,88,0.10,,,0.25,WUHU21623XXSP,2013-06-11 06:59:00,
2013-06-11 03:02:00,57.7,54.2,29.90,ENE,67,1.1,1.8,88,0.06,,,0.25,WUHU21623XXSP,2013-06-11 07:02:00,
2013-06-11 03:03:00,57.6,54.0,29.90,ESE,112,4.5,4.5,88,0.06,,,0.25,WUHU21623XXSP,2013-06-11 07:03:00,
2013-06-11 03:04:00,57.6,54.0,29.90,ESE,112,4.5,4.5,88,0.06,,,0.25,WUHU21623XXSP,2013-06-11 07:04:00,
2013-06-11 03:07:00,57.6,54.0,29.90,ESE,112,0.0,4.5,88,0.06,,,0.25,WUHU21623XXSP,2013-06-11 07:07:00,
2013-06-11 03:08:00,57.6,54.0,29.89,SE,135,5.4,5.4,88,0.08,,,0.27,WUHU21623XXSP,2013-06-11 07:08:00,
2013-06-11 03:09:00,57.6,54.0,29.89,SE,135,5.4,5.4,88,0.08,,,0.27,WUHU21623XXSP,2013-06-11 07:09:00,
2013-06-11 03:12:00,57.6,54.0,29.88,SE,135,4.3,5.4,88,0.06,,,0.29,WUHU21623XXSP,2013-06-11 07:12:00,
2013-06-11 03:13:00,57.6,54.0,29.88,SE,135,4.3,5.4,88,0.06,,,0.29,WUHU21623XXSP,2013-06-11 07:13:00,
2013-06-11 03:14:00,57.6,54.0,29.88,SE,135,4.3,5.4,88,0.06,,,0.29,WUHU21623XXSP,2013-06-11 07:14:00,
2013-06-11 03:18:00,57.4,53.9,29.90,ENE,67,4.7,4.7,88,0.08,,,0.31,WUHU21623XXSP,2013-06-11 07:18:00,
2013-06-11 03:19:00,57.4,53.9,29.89,ESE,112,0.0,4.7,88,0.10,,,0.31,WUHU21623XXSP,2013-06-11 07:19:00,
2013-06-11 03:23:00,57.4,53.9,29.89,ESE,112,0.0,4.7,89,0.08,,,0.33,WUHU21623XXSP,2013-06-11 07:23:00,
2013-06-11 03:24:00,57.4,53.9,29.89,ESE,112,0.0,4.7,89,0.08,,,0.33,WUHU21623XXSP,2013-06-11 07:24:00,
2013-06-11 03:25:00,57.4,54.2,29.90,NNE,22,0.0,4.7,89,0.10,,,0.33,WUHU21623XXSP,2013-06-11 07:25:00,
2013-06-11 03:28:00,57.4,54.2,29.90,NE,45,0.9,0.9,89,0.10,,,0.35,WUHU21623XXSP,2013-06-11 07:28:00,
2013-06-11 03:29:00,57.4,54.2,29.89,ESE,112,1.3,1.3,89,0.12,,,0.35,WUHU21623XXSP,2013-06-11 07:29:00,
2013-06-11 03:30:00,57.4,54.2,29.89,ESE,112,1.3,1.3,89,0.12,,,0.35,WUHU21623XXSP,2013-06-11 07:30:00,
2013-06-11 03:33:00,57.6,54.4,29.89,ENE,67,0.0,1.3,89,0.14,,,0.39,WUHU21623XXSP,2013-06-11 07:33:00,
2013-06-11 03:34:00,57.6,54.4,29.89,ENE,67,0.0,1.3,89,0.14,,,0.39,WUHU21623XXSP,2013-06-11 07:34:00,
2013-06-11 03:35:00,57.6,54.4,29.89,ENE,67,0.0,1.3,89,0.14,,,0.39,WUHU21623XXSP,2013-06-11 07:35:00,
2013-06-11 03:38:00,57.6,54.4,29.88,North,0,0.0,1.3,89,0.14,,,0.39,WUHU21623XXSP,2013-06-11 07:38:00,
2013-06-11 03:39:00,57.6,54.4,29.88,North,0,0.0,1.1,89,0.14,,,0.39,WUHU21623XXSP,2013-06-11 07:39:00,
2013-06-11 03:40:00,57.6,54.4,29.88,North,0,0.0,1.1,89,0.14,,,0.39,WUHU21623XXSP,2013-06-11 07:40:00,
2013-06-11 03:44:00,57.6,54.4,29.88,SE,135,0.7,1.3,89,0.14,,,0.39,WUHU21623XXSP,2013-06-11 07:44:00,
2013-06-11 03:45:00,57.6,54.4,29.88,SE,135,0.7,1.3,89,0.14,,,0.39,WUHU21623XXSP,2013-06-11 07:45:00,
2013-06-11 03:50:00,57.6,54.4,29.87,ESE,112,1.6,1.6,89,0.14,,,0.39,WUHU21623XXSP,2013-06-11 07:50:00,
2013-06-11 03:55:00,57.6,54.4,29.87,NE,45,0.0,4.7,89,0.14,,,0.39,WUHU21623XXSP,2013-06-11 07:55:00,
2013-06-11 03:56:00,57.6,54.4,29.87,NE,45,0.0,4.7,89,0.14,,,0.39,WUHU21623XXSP,2013-06-11 07:56:00,
2013-06-11 04:00:00,57.6,54.4,29.87,SE,135,2.9,4.7,89,0.14,,,0.39,WUHU21623XXSP,2013-06-11 08:00:00,
2013-06-11 04:01:00,57.6,54.4,29.87,SE,135,2.9,4.7,89,0.14,,,0.39,WUHU21623XXSP,2013-06-11 08:01:00,
2013-06-11 04:05:00,57.6,54.4,29.86,East,90,0.0,2.9,89,0.14,,,0.39,WUHU21623XXSP,2013-06-11 08:05:00,
2013-06-11 04:06:00,57.6,54.4,29.86,NW,315,2.5,2.9,89,0.10,,,0.39,WUHU21623XXSP,2013-06-11 08:06:00,
2013-06-11 04:07:00,57.6,54.4,29.86,NW,315,2.5,2.9,89,0.10,,,0.39,WUHU21623XXSP,2013-06-11 08:07:00,
2013-06-11 04:10:00,57.6,54.4,29.86,SSE,157,12.8,12.8,89,0.12,,,0.41,WUHU21623XXSP,2013-06-11 08:10:00,
2013-06-11 04:11:00,57.6,54.4,29.86,SSE,157,12.8,12.8,89,0.12,,,0.41,WUHU21623XXSP,2013-06-11 08:11:00,
2013-06-11 04:12:00,57.6,54.4,29.86,SSE,157,12.8,12.8,89,0.12,,,0.41,WUHU21623XXSP,2013-06-11 08:12:00,
2013-06-11 04:16:00,57.6,54.4,29.86,ESE,112,5.1,12.8,89,0.12,,,0.41,WUHU21623XXSP,2013-06-11 08:16:00,
2013-06-11 04:17:00,57.6,54.4,29.86,WSW,247,0.0,12.8,89,0.10,,,0.43,WUHU21623XXSP,2013-06-11 08:17:00,
2013-06-11 04:18:00,57.6,54.4,29.86,WSW,247,0.0,12.8,89,0.10,,,0.43,WUHU21623XXSP,2013-06-11 08:18:00,
2013-06-11 04:21:00,57.6,54.4,29.85,NNE,22,2.0,5.1,89,0.08,,,0.43,WUHU21623XXSP,2013-06-11 08:21:00,
2013-06-11 04:22:00,57.6,54.4,29.85,NNE,22,2.0,5.1,89,0.08,,,0.43,WUHU21623XXSP,2013-06-11 08:22:00,
2013-06-11 04:23:00,57.6,54.4,29.85,NE,45,2.0,5.1,89,0.08,,,0.43,WUHU21623XXSP,2013-06-11 08:23:00,
2013-06-11 04:26:00,57.6,54.4,29.85,South,180,3.1,3.1,89,0.08,,,0.43,WUHU21623XXSP,2013-06-11 08:26:00,
2013-06-11 04:27:00,57.6,54.4,29.85,ESE,112,8.7,8.7,89,0.08,,,0.43,WUHU21623XXSP,2013-06-11 08:27:00,
2013-06-11 04:28:00,57.6,54.4,29.85,ESE,112,8.7,8.7,89,0.08,,,0.43,WUHU21623XXSP,2013-06-11 08:28:00,
2013-06-11 04:31:00,57.6,54.4,29.85,ENE,67,0.0,8.7,89,0.04,,,0.43,WUHU21623XXSP,2013-06-11 08:31:00,
2013-06-11 04:32:00,57.6,54.4,29.85,NNW,337,0.0,8.7,89,0.04,,,0.43,WUHU21623XXSP,2013-06-11 08:32:00,
2013-06-11 04:33:00,57.6,54.4,29.85,NNW,337,0.0,8.7,89,0.04,,,0.43,WUHU21623XXSP,2013-06-11 08:33:00,
2013-06-11 04:37:00,57.6,54.4,29.85,ENE,67,0.7,0.7,89,0.04,,,0.43,WUHU21623XXSP,2013-06-11 08:37:00,
2013-06-11 04:38:00,57.7,54.5,29.84,ENE,67,0.0,0.7,89,0.04,,,0.43,WUHU21623XXSP,2013-06-11 08:38:00,
2013-06-11 04:42:00,57.7,54.5,29.84,NE,45,1.1,1.1,89,0.04,,,0.43,WUHU21623XXSP,2013-06-11 08:42:00,
2013-06-11 04:43:00,57.7,54.5,29.84,NE,45,1.1,1.1,89,0.04,,,0.43,WUHU21623XXSP,2013-06-11 08:43:00,
2013-06-11 04:47:00,57.6,54.4,29.84,ESE,112,3.8,4.9,89,0.06,,,0.43,WUHU21623XXSP,2013-06-11 08:47:00,
2013-06-11 04:48:00,57.6,54.4,29.84,ESE,112,3.8,4.9,89,0.06,,,0.43,WUHU21623XXSP,2013-06-11 08:48:00,
2013-06-11 04:52:00,57.6,54.4,29.84,SSE,157,0.9,4.9,89,0.08,,,0.47,WUHU21623XXSP,2013-06-11 08:52:00,
2013-06-11 04:53:00,57.7,54.5,29.84,SSE,157,4.5,4.9,89,0.08,,,0.47,WUHU21623XXSP,2013-06-11 08:53:00,
2013-06-11 04:58:00,57.7,54.5,29.83,SE,135,9.8,9.8,89,0.08,,,0.47,WUHU21623XXSP,2013-06-11 08:58:00,
2013-06-11 04:59:00,57.7,54.5,29.83,SE,135,9.8,9.8,89,0.08,,,0.47,WUHU21623XXSP,2013-06-11 08:59:00,
2013-06-11 05:03:00,57.7,54.5,29.83,East,90,0.0,9.8,89,0.08,,,0.47,WUHU21623XXSP,2013-06-11 09:03:00,
2013-06-11 05:04:00,57.7,54.5,29.83,East,90,0.0,9.8,89,0.08,,,0.47,WUHU21623XXSP,2013-06-11 09:04:00,
2013-06-11 05:08:00,57.6,54.4,29.83,SE,135,2.0,2.0,89,0.06,,,0.47,WUHU21623XXSP,2013-06-11 09:08:00,
2013-06-11 05:09:00,57.6,54.4,29.83,SE,135,2.0,2.0,89,0.06,,,0.47,WUHU21623XXSP,2013-06-11 09:09:00,
2013-06-11 05:13:00,57.6,54.4,29.83,NNE,22,0.0,2.0,89,0.04,,,0.47,WUHU21623XXSP,2013-06-11 09:13:00,
2013-06-11 05:14:00,57.6,54.4,29.82,ESE,112,2.5,2.5,89,0.04,,,0.47,WUHU21623XXSP,2013-06-11 09:14:00,
2013-06-11 05:18:00,57.6,54.4,29.82,ENE,67,0.0,2.5,89,0.04,,,0.47,WUHU21623XXSP,2013-06-11 09:18:00,
2013-06-11 05:19:00,57.6,54.4,29.82,ENE,67,0.0,2.5,89,0.04,,,0.47,WUHU21623XXSP,2013-06-11 09:19:00,
2013-06-11 05:20:00,57.6,54.4,29.82,ENE,67,0.0,2.5,89,0.04,,,0.47,WUHU21623XXSP,2013-06-11 09:20:00,
2013-06-11 05:23:00,57.4,54.2,29.82,ENE,67,0.0,2.5,89,0.04,,,0.47,WUHU21623XXSP,2013-06-11 09:23:00,
2013-06-11 05:24:00,57.4,54.2,29.82,ENE,67,0.0,2.2,89,0.04,,,0.47,WUHU21623XXSP,2013-06-11 09:24:00,
2013-06-11 05:25:00,57.4,54.2,29.82,ENE,67,1.1,2.2,89,0.04,,,0.47,WUHU21623XXSP,2013-06-11 09:25:00,
2013-06-11 05:28:00,57.6,54.4,29.82,NE,45,2.7,2.7,89,0.04,,,0.47,WUHU21623XXSP,2013-06-11 09:28:00,
2013-06-11 05:29:00,57.4,54.2,29.82,SE,135,5.1,5.1,89,0.04,,,0.47,WUHU21623XXSP,2013-06-11 09:29:00,
2013-06-11 05:30:00,57.4,54.2,29.82,SE,135,5.1,5.1,89,0.04,,,0.47,WUHU21623XXSP,2013-06-11 09:30:00,
2013-06-11 05:33:00,57.4,54.2,29.82,East,90,3.1,5.1,89,0.06,,,0.49,WUHU21623XXSP,2013-06-11 09:33:00,
2013-06-11 05:34:00,57.4,54.2,29.82,East,90,3.1,5.1,89,0.06,,,0.49,WUHU21623XXSP,2013-06-11 09:34:00,
2013-06-11 05:35:00,57.4,54.2,29.82,East,90,3.1,5.1,89,0.06,,,0.49,WUHU21623XXSP,2013-06-11 09:35:00,
2013-06-11 05:39:00,57.4,54.2,29.82,NNW,337,0.0,3.1,89,0.06,,,0.49,WUHU21623XXSP,2013-06-11 09:39:00,
2013-06-11 05:40:00,57.4,54.2,29.83,East,90,0.0,3.1,89,0.08,,,0.49,WUHU21623XXSP,2013-06-11 09:40:00,
2013-06-11 05:44:00,57.4,54.2,29.82,SSE,157,0.0,2.5,89,0.06,,,0.51,WUHU21623XXSP,2013-06-11 09:44:00,
2013-06-11 05:45:00,57.4,54.2,29.82,SSE,157,0.0,2.5,89,0.06,,,0.51,WUHU21623XXSP,2013-06-11 09:45:00,
2013-06-11 05:50:00,57.4,54.2,29.82,East,90,3.4,3.4,89,0.04,,,0.51,WUHU21623XXSP,2013-06-11 09:50:00,
2013-06-11 05:55:00,57.4,54.2,29.80,ESE,112,0.0,3.4,89,0.04,,,0.51,WUHU21623XXSP,2013-06-11 09:55:00,
2013-06-11 05:56:00,57.4,54.2,29.80,ESE,112,0.0,3.4,89,0.04,,,0.51,WUHU21623XXSP,2013-06-11 09:56:00,
2013-06-11 06:00:00,57.4,54.2,29.80,ENE,67,0.0,3.4,89,0.06,,,0.53,WUHU21623XXSP,2013-06-11 10:00:00,
2013-06-11 06:01:00,57.4,54.2,29.80,ENE,67,0.0,1.6,89,0.06,,,0.53,WUHU21623XXSP,2013-06-11 10:01:00,
2013-06-11 06:05:00,57.4,54.2,29.79,NNE,22,0.0,3.8,89,0.06,,,0.53,WUHU21623XXSP,2013-06-11 10:05:00,
2013-06-11 06:06:00,57.4,54.2,29.79,ENE,67,0.0,3.8,89,0.06,,,0.53,WUHU21623XXSP,2013-06-11 10:06:00,
2013-06-11 06:08:00,57.4,54.2,29.79,SE,135,0.0,3.8,89,0.06,,,0.53,WUHU21623XXSP,2013-06-11 10:08:00,
2013-06-11 06:10:00,57.4,54.2,29.79,SE,135,0.0,3.8,89,0.06,,,0.53,WUHU21623XXSP,2013-06-11 10:10:00,
2013-06-11 06:11:00,57.4,54.2,29.79,SE,135,0.0,0.0,89,0.06,,,0.53,WUHU21623XXSP,2013-06-11 10:11:00,
2013-06-11 06:12:00,57.4,54.2,29.79,SE,135,1.6,1.6,89,0.06,,,0.53,WUHU21623XXSP,2013-06-11 10:12:00,
2013-06-11 06:13:00,57.4,54.2,29.79,SE,135,1.6,1.6,89,0.06,,,0.53,WUHU21623XXSP,2013-06-11 10:13:00,
2013-06-11 06:15:00,57.4,54.2,29.79,ESE,112,1.3,1.6,89,0.06,,,0.53,WUHU21623XXSP,2013-06-11 10:15:00,
2013-06-11 06:17:00,57.6,54.4,29.79,ENE,67,2.2,2.2,89,0.06,,,0.53,WUHU21623XXSP,2013-06-11 10:17:00,
2013-06-11 06:18:00,57.6,54.4,29.78,SE,135,2.5,2.5,89,0.06,,,0.53,WUHU21623XXSP,2013-06-11 10:18:00,
2013-06-11 06:20:00,57.6,54.4,29.78,SE,135,2.5,2.5,89,0.06,,,0.53,WUHU21623XXSP,2013-06-11 10:20:00,
2013-06-11 06:22:00,57.6,54.4,29.79,NE,45,0.0,2.5,89,0.06,,,0.53,WUHU21623XXSP,2013-06-11 10:22:00,
2013-06-11 06:23:00,57.6,54.4,29.79,NNE,22,0.0,2.5,89,0.08,,,0.53,WUHU21623XXSP,2013-06-11 10:23:00,
2013-06-11 06:24:00,57.6,54.4,29.79,NNE,22,0.0,2.5,89,0.08,,,0.53,WUHU21623XXSP,2013-06-11 10:24:00,
2013-06-11 06:25:00,57.7,54.5,29.79,East,90,0.0,2.5,89,0.08,,,0.55,WUHU21623XXSP,2013-06-11 10:25:00,
2013-06-11 06:27:00,57.7,54.5,29.79,ENE,67,0.0,2.5,89,0.08,,,0.55,WUHU21623XXSP,2013-06-11 10:27:00,
2013-06-11 06:28:00,57.7,54.5,29.79,ENE,67,0.0,2.5,89,0.08,,,0.55,WUHU21623XXSP,2013-06-11 10:28:00,
2013-06-11 06:29:00,57.7,54.5,29.79,ENE,67,0.0,0.0,89,0.08,,,0.55,WUHU21623XXSP,2013-06-11 10:29:00,
2013-06-11 06:31:00,57.7,54.5,29.78,East,90,0.0,1.8,89,0.06,,,0.55,WUHU21623XXSP,2013-06-11 10:31:00,
2013-06-11 06:32:00,57.7,54.5,29.78,East,90,0.0,1.8,89,0.06,,,0.55,WUHU21623XXSP,2013-06-11 10:32:00,
2013-06-11 06:33:00,57.7,54.5,29.78,East,90,0.0,1.8,89,0.06,,,0.55,WUHU21623XXSP,2013-06-11 10:33:00,
2013-06-11 06:34:00,57.7,54.5,29.78,ESE,112,1.1,1.8,89,0.06,,,0.55,WUHU21623XXSP,2013-06-11 10:34:00,
2013-06-11 06:36:00,57.7,54.5,29.78,West,270,0.0,1.8,89,0.06,,,0.55,WUHU21623XXSP,2013-06-11 10:36:00,
2013-06-11 06:37:00,57.7,54.5,29.78,West,270,0.0,1.8,89,0.06,,,0.55,WUHU21623XXSP,2013-06-11 10:37:00,
2013-06-11 06:39:00,57.7,54.5,29.78,SE,135,1.1,1.8,89,0.04,,,0.55,WUHU21623XXSP,2013-06-11 10:39:00,
2013-06-11 06:42:00,57.9,54.7,29.78,SE,135,1.8,1.8,89,0.04,,,0.55,WUHU21623XXSP,2013-06-11 10:42:00,
2013-06-11 06:43:00,57.9,54.7,29.78,SE,135,1.8,1.8,89,0.04,,,0.55,WUHU21623XXSP,2013-06-11 10:43:00,
2013-06-11 06:44:00,57.9,54.7,29.78,SE,135,1.8,1.8,89,0.04,,,0.55,WUHU21623XXSP,2013-06-11 10:44:00,
2013-06-11 06:47:00,57.9,54.7,29.77,ESE,112,0.0,1.8,89,0.04,,,0.55,WUHU21623XXSP,2013-06-11 10:47:00,
2013-06-11 06:48:00,57.9,54.7,29.77,ESE,112,0.0,1.8,89,0.04,,,0.55,WUHU21623XXSP,2013-06-11 10:48:00,
2013-06-11 06:49:00,57.9,54.7,29.77,SE,135,2.5,2.5,89,0.04,,,0.55,WUHU21623XXSP,2013-06-11 10:49:00,
2013-06-11 06:52:00,57.9,54.7,29.77,SE,135,0.0,2.5,89,0.04,,,0.55,WUHU21623XXSP,2013-06-11 10:52:00,
2013-06-11 06:53:00,57.9,54.7,29.77,SE,135,1.3,2.5,89,0.04,,,0.55,WUHU21623XXSP,2013-06-11 10:53:00,
2013-06-11 06:54:00,57.9,54.7,29.77,SE,135,1.3,2.5,89,0.04,,,0.55,WUHU21623XXSP,2013-06-11 10:54:00,
2013-06-11 06:57:00,57.9,55.0,29.77,ESE,112,0.0,2.5,90,0.04,,,0.55,WUHU21623XXSP,2013-06-11 10:57:00,
2013-06-11 06:58:00,57.9,55.0,29.77,ESE,112,0.0,2.5,90,0.04,,,0.55,WUHU21623XXSP,2013-06-11 10:58:00,
2013-06-11 06:59:00,57.9,54.7,29.77,NNW,337,0.0,1.3,89,0.04,,,0.57,WUHU21623XXSP,2013-06-11 10:59:00,
2013-06-11 07:00:00,57.9,54.7,29.77,NNW,337,0.0,1.3,89,0.04,,,0.57,WUHU21623XXSP,2013-06-11 11:00:00,
2013-06-11 07:02:00,57.9,55.0,29.77,North,0,0.0,1.3,90,0.04,,,0.57,WUHU21623XXSP,2013-06-11 11:02:00,
2013-06-11 07:03:00,58.1,55.0,29.77,North,0,0.0,1.3,90,0.04,,,0.57,WUHU21623XXSP,2013-06-11 11:03:00,
2013-06-11 07:04:00,58.1,55.0,29.77,North,0,0.0,1.3,90,0.04,,,0.57,WUHU21623XXSP,2013-06-11 11:04:00,
2013-06-11 07:05:00,58.1,55.2,29.76,North,0,0.0,0.0,90,0.04,,,0.57,WUHU21623XXSP,2013-06-11 11:05:00,
2013-06-11 07:07:00,58.1,55.2,29.76,North,0,0.0,0.0,90,0.04,,,0.57,WUHU21623XXSP,2013-06-11 11:07:00,
2013-06-11 07:08:00,58.1,55.2,29.77,North,0,0.0,0.0,90,0.04,,,0.57,WUHU21623XXSP,2013-06-11 11:08:00,
2013-06-11 07:09:00,58.1,55.2,29.77,North,0,0.0,0.0,90,0.04,,,0.57,WUHU21623XXSP,2013-06-11 11:09:00,
2013-06-11 07:11:00,58.1,55.2,29.76,NW,315,0.0,0.0,90,0.04,,,0.57,WUHU21623XXSP,2013-06-11 11:11:00,
2013-06-11 07:12:00,58.1,55.2,29.76,NW,315,0.0,0.0,90,0.04,,,0.57,WUHU21623XXSP,2013-06-11 11:12:00,
2013-06-11 07:14:00,58.1,55.2,29.76,NW,315,0.0,0.0,90,0.04,,,0.57,WUHU21623XXSP,2013-06-11 11:14:00,
2013-06-11 07:15:00,58.1,55.2,29.76,East,90,1.3,1.3,90,0.06,,,0.57,WUHU21623XXSP,2013-06-11 11:15:00,
2013-06-11 07:16:00,58.1,55.2,29.76,East,90,1.3,1.3,90,0.06,,,0.57,WUHU21623XXSP,2013-06-11 11:16:00,
2013-06-11 07:18:00,58.3,55.4,29.76,ESE,112,0.0,1.3,90,0.06,,,0.59,WUHU21623XXSP,2013-06-11 11:18:00,
2013-06-11 07:19:00,58.3,55.4,29.76,ESE,112,0.0,1.3,90,0.06,,,0.59,WUHU21623XXSP,2013-06-11 11:19:00,
2013-06-11 07:20:00,58.3,55.4,29.76,ESE,112,0.0,1.3,90,0.06,,,0.59,WUHU21623XXSP,2013-06-11 11:20:00,
2013-06-11 07:21:00,58.3,55.4,29.76,NNE,22,0.0,1.3,90,0.04,,,0.59,WUHU21623XXSP,2013-06-11 11:21:00,
2013-06-11 07:23:00,58.3,55.4,29.75,NNE,22,0.0,1.3,90,0.04,,,0.59,WUHU21623XXSP,2013-06-11 11:23:00,
2013-06-11 07:25:00,58.3,55.4,29.75,ESE,112,0.0,0.0,90,0.04,,,0.59,WUHU21623XXSP,2013-06-11 11:25:00,
2013-06-11 07:26:00,58.3,55.4,29.75,ESE,112,0.0,0.0,90,0.04,,,0.59,WUHU21623XXSP,2013-06-11 11:26:00,
2013-06-11 07:29:00,58.5,55.6,29.76,SE,135,1.3,1.3,90,0.04,,,0.59,WUHU21623XXSP,2013-06-11 11:29:00,
2013-06-11 07:30:00,58.5,55.6,29.76,SE,135,1.3,1.3,90,0.04,,,0.59,WUHU21623XXSP,2013-06-11 11:30:00,
2013-06-11 07:32:00,58.6,55.6,29.75,West,270,0.0,1.3,90,0.04,,,0.59,WUHU21623XXSP,2013-06-11 11:32:00,
2013-06-11 07:34:00,58.6,55.8,29.75,West,270,0.0,1.3,90,0.04,,,0.59,WUHU21623XXSP,2013-06-11 11:34:00,
2013-06-11 07:35:00,58.6,55.8,29.75,West,270,0.0,1.3,90,0.04,,,0.59,WUHU21623XXSP,2013-06-11 11:35:00,
2013-06-11 07:36:00,58.8,55.9,29.75,SSE,157,0.0,1.3,90,0.04,,,0.59,WUHU21623XXSP,2013-06-11 11:36:00,
2013-06-11 07:37:00,58.8,55.9,29.75,SSE,157,0.0,1.3,90,0.04,,,0.59,WUHU21623XXSP,2013-06-11 11:37:00,
2013-06-11 07:39:00,58.6,55.8,29.75,SE,135,0.0,0.0,90,0.04,,,0.59,WUHU21623XXSP,2013-06-11 11:39:00,
2013-06-11 07:40:00,58.6,55.8,29.75,SE,135,0.0,0.0,90,0.04,,,0.59,WUHU21623XXSP,2013-06-11 11:40:00,
2013-06-11 07:41:00,58.6,55.8,29.75,SE,135,0.0,0.0,90,0.04,,,0.59,WUHU21623XXSP,2013-06-11 11:41:00,
2013-06-11 07:42:00,58.8,55.9,29.75,NNE,22,0.0,0.0,90,0.04,,,0.59,WUHU21623XXSP,2013-06-11 11:42:00,
2013-06-11 07:44:00,58.6,55.8,29.75,SE,135,0.0,0.0,90,0.04,,,0.59,WUHU21623XXSP,2013-06-11 11:44:00,
2013-06-11 07:45:00,58.6,55.8,29.75,SE,135,0.0,0.0,90,0.04,,,0.59,WUHU21623XXSP,2013-06-11 11:45:00,
2013-06-11 07:46:00,58.6,55.8,29.75,SE,135,0.0,0.0,90,0.04,,,0.59,WUHU21623XXSP,2013-06-11 11:46:00,
2013-06-11 07:47:00,58.8,55.9,29.75,West,270,0.0,0.0,90,0.04,,,0.59,WUHU21623XXSP,2013-06-11 11:47:00,
2013-06-11 07:50:00,58.8,55.9,29.75,West,270,0.0,0.0,90,0.06,,,0.59,WUHU21623XXSP,2013-06-11 11:50:00,
2013-06-11 07:51:00,58.8,55.9,29.75,NNW,337,0.0,0.0,90,0.06,,,0.61,WUHU21623XXSP,2013-06-11 11:51:00,
2013-06-11 07:53:00,58.8,55.9,29.75,NE,45,0.0,0.0,90,0.06,,,0.61,WUHU21623XXSP,2013-06-11 11:53:00,
2013-06-11 07:55:00,58.8,55.9,29.75,NE,45,0.0,0.0,90,0.06,,,0.61,WUHU21623XXSP,2013-06-11 11:55:00,
2013-06-11 07:56:00,58.8,55.9,29.75,NE,45,0.0,0.0,90,0.06,,,0.61,WUHU21623XXSP,2013-06-11 11:56:00,
2013-06-11 07:58:00,58.8,55.9,29.74,ESE,112,0.0,0.0,90,0.06,,,0.61,WUHU21623XXSP,2013-06-11 11:58:00,
2013-06-11 08:00:00,58.8,55.9,29.74,ESE,112,0.0,0.0,90,0.06,,,0.63,WUHU21623XXSP,2013-06-11 12:00:00,
2013-06-11 08:01:00,58.8,55.9,29.74,ESE,112,0.0,0.0,90,0.06,,,0.63,WUHU21623XXSP,2013-06-11 12:01:00,
2013-06-11 08:03:00,58.8,55.9,29.74,ESE,112,0.0,0.0,90,0.06,,,0.63,WUHU21623XXSP,2013-06-11 12:03:00,
2013-06-11 08:05:00,58.8,55.9,29.74,West,270,0.0,0.0,90,0.06,,,0.63,WUHU21623XXSP,2013-06-11 12:05:00,
2013-06-11 08:06:00,58.8,55.9,29.74,West,270,0.0,0.0,90,0.06,,,0.63,WUHU21623XXSP,2013-06-11 12:06:00,
2013-06-11 08:07:00,58.8,55.9,29.74,West,270,0.0,0.0,90,0.06,,,0.63,WUHU21623XXSP,2013-06-11 12:07:00,
2013-06-11 08:08:00,58.8,55.9,29.74,WNW,292,0.0,0.0,90,0.06,,,0.63,WUHU21623XXSP,2013-06-11 12:08:00,
2013-06-11 08:11:00,58.8,55.9,29.74,West,270,0.0,0.0,90,0.04,,,0.63,WUHU21623XXSP,2013-06-11 12:11:00,
2013-06-11 08:12:00,58.8,55.9,29.74,South,180,0.0,0.0,90,0.04,,,0.63,WUHU21623XXSP,2013-06-11 12:12:00,
2013-06-11 08:13:00,58.8,55.9,29.74,South,180,0.0,0.0,90,0.04,,,0.63,WUHU21623XXSP,2013-06-11 12:13:00,
2013-06-11 08:16:00,58.8,55.9,29.74,South,180,0.0,0.0,90,0.04,,,0.63,WUHU21623XXSP,2013-06-11 12:16:00,
2013-06-11 08:17:00,58.8,55.9,29.73,ENE,67,0.0,0.0,90,0.04,,,0.63,WUHU21623XXSP,2013-06-11 12:17:00,
2013-06-11 08:18:00,58.8,55.9,29.73,NNE,22,0.0,0.0,90,0.04,,,0.63,WUHU21623XXSP,2013-06-11 12:18:00,
2013-06-11 08:19:00,58.8,55.9,29.73,NNE,22,0.0,0.0,90,0.04,,,0.63,WUHU21623XXSP,2013-06-11 12:19:00,
2013-06-11 08:21:00,58.8,55.9,29.73,NE,45,0.0,0.0,90,0.04,,,0.63,WUHU21623XXSP,2013-06-11 12:21:00,
2013-06-11 08:22:00,58.8,55.9,29.73,NE,45,0.0,0.0,90,0.04,,,0.63,WUHU21623XXSP,2013-06-11 12:22:00,
2013-06-11 08:23:00,58.8,55.9,29.73,NE,45,0.0,0.0,90,0.04,,,0.63,WUHU21623XXSP,2013-06-11 12:23:00,
2013-06-11 08:24:00,58.8,55.9,29.73,NE,45,0.0,0.0,90,0.04,,,0.63,WUHU21623XXSP,2013-06-11 12:24:00,
2013-06-11 08:27:00,58.8,55.9,29.73,NW,315,0.0,0.0,90,0.04,,,0.63,WUHU21623XXSP,2013-06-11 12:27:00,
2013-06-11 08:28:00,58.8,55.9,29.73,NW,315,0.0,0.0,90,0.04,,,0.63,WUHU21623XXSP,2013-06-11 12:28:00,
2013-06-11 08:29:00,58.8,55.9,29.73,NW,315,0.0,0.0,90,0.04,,,0.63,WUHU21623XXSP,2013-06-11 12:29:00,
2013-06-11 08:32:00,59.2,56.3,29.73,West,270,0.0,0.0,90,0.04,,,0.63,WUHU21623XXSP,2013-06-11 12:32:00,
2013-06-11 08:33:00,59.2,56.3,29.73,West,270,0.0,0.0,90,0.04,,,0.63,WUHU21623XXSP,2013-06-11 12:33:00,
2013-06-11 08:34:00,59.2,56.3,29.73,West,270,1.1,1.1,90,0.04,,,0.63,WUHU21623XXSP,2013-06-11 12:34:00,
2013-06-11 08:37:00,59.4,56.5,29.73,SSE,157,0.0,1.1,90,0.04,,,0.63,WUHU21623XXSP,2013-06-11 12:37:00,
2013-06-11 08:38:00,59.4,56.5,29.73,SSE,157,0.0,1.1,90,0.04,,,0.63,WUHU21623XXSP,2013-06-11 12:38:00,
2013-06-11 08:39:00,59.4,56.5,29.73,SSE,157,0.0,1.1,90,0.04,,,0.63,WUHU21623XXSP,2013-06-11 12:39:00,
2013-06-11 08:42:00,59.4,56.5,29.73,South,180,0.0,1.1,90,0.04,,,0.63,WUHU21623XXSP,2013-06-11 12:42:00,
2013-06-11 08:43:00,59.4,56.5,29.73,South,180,0.0,1.1,90,0.04,,,0.63,WUHU21623XXSP,2013-06-11 12:43:00,
2013-06-11 08:44:00,59.5,56.7,29.73,West,270,0.0,0.0,90,0.04,,,0.63,WUHU21623XXSP,2013-06-11 12:44:00,
2013-06-11 08:45:00,59.5,56.7,29.73,West,270,0.0,0.0,90,0.04,,,0.63,WUHU21623XXSP,2013-06-11 12:45:00,
2013-06-11 08:47:00,59.5,56.7,29.73,SE,135,1.1,1.1,90,0.04,,,0.63,WUHU21623XXSP,2013-06-11 12:47:00,
2013-06-11 08:48:00,59.5,56.7,29.73,SE,135,1.1,1.1,90,0.04,,,0.63,WUHU21623XXSP,2013-06-11 12:48:00,
2013-06-11 08:49:00,59.5,56.7,29.73,WNW,292,0.0,1.1,90,0.02,,,0.63,WUHU21623XXSP,2013-06-11 12:49:00,
2013-06-11 08:50:00,59.5,56.7,29.73,WNW,292,0.0,1.1,90,0.02,,,0.63,WUHU21623XXSP,2013-06-11 12:50:00,
2013-06-11 08:53:00,59.5,56.7,29.73,WSW,247,0.0,1.1,90,0.02,,,0.63,WUHU21623XXSP,2013-06-11 12:53:00,
2013-06-11 08:54:00,59.5,56.7,29.73,WSW,247,0.0,1.1,90,0.02,,,0.63,WUHU21623XXSP,2013-06-11 12:54:00,
2013-06-11 08:55:00,59.5,56.7,29.72,NNE,22,0.0,1.1,90,0.02,,,0.63,WUHU21623XXSP,2013-06-11 12:55:00,
2013-06-11 08:58:00,59.7,56.7,29.72,NNE,22,0.0,0.0,90,0.00,,,0.63,WUHU21623XXSP,2013-06-11 12:58:00,
2013-06-11 08:59:00,59.7,56.8,29.72,West,270,1.3,1.3,90,0.00,,,0.63,WUHU21623XXSP,2013-06-11 12:59:00,
2013-06-11 09:00:00,59.7,56.8,29.72,West,270,1.3,1.3,90,0.00,,,0.63,WUHU21623XXSP,2013-06-11 13:00:00,
2013-06-11 09:03:00,59.7,56.8,29.71,North,0,0.0,1.3,90,0.00,,,0.63,WUHU21623XXSP,2013-06-11 13:03:00,
2013-06-11 09:05:00,59.7,56.8,29.71,North,0,0.0,1.3,90,0.00,,,0.63,WUHU21623XXSP,2013-06-11 13:05:00,
2013-06-11 09:08:00,59.9,57.0,29.71,WSW,247,0.0,1.3,90,0.00,,,0.63,WUHU21623XXSP,2013-06-11 13:08:00,
2013-06-11 09:10:00,59.9,57.0,29.71,South,180,0.0,1.3,90,0.00,,,0.63,WUHU21623XXSP,2013-06-11 13:10:00,
2013-06-11 09:11:00,59.9,57.0,29.71,South,180,0.0,1.3,90,0.00,,,0.63,WUHU21623XXSP,2013-06-11 13:11:00,
2013-06-11 09:13:00,60.1,57.0,29.71,South,180,0.0,0.0,90,0.00,,,0.63,WUHU21623XXSP,2013-06-11 13:13:00,
2013-06-11 09:14:00,60.1,57.0,29.71,South,180,0.0,0.0,90,0.00,,,0.63,WUHU21623XXSP,2013-06-11 13:14:00,
2013-06-11 09:15:00,59.9,57.2,29.71,South,180,0.0,0.0,90,0.00,,,0.63,WUHU21623XXSP,2013-06-11 13:15:00,
2013-06-11 09:16:00,59.9,57.0,29.71,NE,45,0.0,0.0,90,0.00,,,0.63,WUHU21623XXSP,2013-06-11 13:16:00,
2013-06-11 09:19:00,60.1,57.2,29.71,NE,45,0.0,0.0,90,0.00,,,0.63,WUHU21623XXSP,2013-06-11 13:19:00,
2013-06-11 09:20:00,60.1,57.2,29.71,NE,45,0.0,0.0,90,0.00,,,0.63,WUHU21623XXSP,2013-06-11 13:20:00,
2013-06-11 09:21:00,59.9,57.0,29.71,North,0,0.0,0.0,90,0.00,,,0.63,WUHU21623XXSP,2013-06-11 13:21:00,
2013-06-11 09:24:00,60.1,57.0,29.70,North,0,0.0,0.0,90,0.00,,,0.63,WUHU21623XXSP,2013-06-11 13:24:00,
2013-06-11 09:25:00,60.1,57.2,29.70,WSW,247,0.0,0.0,90,0.00,,,0.63,WUHU21623XXSP,2013-06-11 13:25:00,
2013-06-11 09:26:00,60.1,57.2,29.70,WSW,247,0.0,0.0,90,0.00,,,0.63,WUHU21623XXSP,2013-06-11 13:26:00,
2013-06-11 09:29:00,60.4,57.2,29.70,WNW,292,0.0,0.0,90,0.00,,,0.63,WUHU21623XXSP,2013-06-11 13:29:00,
2013-06-11 09:30:00,60.4,57.2,29.70,WNW,292,0.0,0.0,90,0.00,,,0.63,WUHU21623XXSP,2013-06-11 13:30:00,
2013-06-11 09:31:00,60.1,57.6,29.70,WNW,292,0.0,0.0,90,0.00,,,0.63,WUHU21623XXSP,2013-06-11 13:31:00,
2013-06-11 09:34:00,60.3,57.4,29.70,WSW,247,0.0,0.0,90,0.00,,,0.63,WUHU21623XXSP,2013-06-11 13:34:00,
2013-06-11 09:35:00,60.3,57.4,29.70,WSW,247,0.0,0.0,90,0.00,,,0.63,WUHU21623XXSP,2013-06-11 13:35:00,
2013-06-11 09:36:00,60.3,57.4,29.70,NNW,337,0.0,0.0,90,0.00,,,0.63,WUHU21623XXSP,2013-06-11 13:36:00,
2013-06-11 09:37:00,60.3,57.4,29.70,NNW,337,0.0,0.0,90,0.00,,,0.63,WUHU21623XXSP,2013-06-11 13:37:00,
2013-06-11 09:40:00,60.4,57.2,29.70,ENE,67,0.0,2.7,89,0.00,,,0.63,WUHU21623XXSP,2013-06-11 13:40:00,
2013-06-11 09:41:00,60.4,57.2,29.70,ENE,67,0.0,2.7,89,0.00,,,0.63,WUHU21623XXSP,2013-06-11 13:41:00,
2013-06-11 09:42:00,60.4,57.2,29.70,WNW,292,0.0,2.7,89,0.00,,,0.63,WUHU21623XXSP,2013-06-11 13:42:00,
2013-06-11 09:45:00,60.4,57.2,29.71,WNW,292,0.0,2.7,89,0.00,,,0.63,WUHU21623XXSP,2013-06-11 13:45:00,
2013-06-11 09:47:00,60.3,57.2,29.71,WNW,292,0.0,2.7,89,0.00,,,0.63,WUHU21623XXSP,2013-06-11 13:47:00,
2013-06-11 09:50:00,60.4,57.2,29.70,West,270,0.0,0.0,89,0.00,,,0.63,WUHU21623XXSP,2013-06-11 13:50:00,
2013-06-11 09:52:00,60.4,57.2,29.70,West,270,0.0,0.0,89,0.00,,,0.63,WUHU21623XXSP,2013-06-11 13:52:00,
2013-06-11 09:55:00,60.4,57.2,29.70,WSW,247,0.0,1.6,89,0.00,,,0.63,WUHU21623XXSP,2013-06-11 13:55:00,
2013-06-11 09:57:00,60.4,57.2,29.70,West,270,2.0,2.0,89,0.00,,,0.63,WUHU21623XXSP,2013-06-11 13:57:00,
2013-06-11 10:00:00,60.4,57.2,29.70,SE,135,0.0,2.0,89,0.00,,,0.63,WUHU21623XXSP,2013-06-11 14:00:00,
2013-06-11 10:01:00,60.4,57.2,29.70,SE,135,0.0,2.0,89,0.00,,,0.63,WUHU21623XXSP,2013-06-11 14:01:00,
2013-06-11 10:02:00,60.4,57.2,29.70,WNW,292,0.0,2.0,89,0.00,,,0.63,WUHU21623XXSP,2013-06-11 14:02:00,
2013-06-11 10:03:00,60.4,57.2,29.70,WNW,292,0.0,2.0,89,0.00,,,0.63,WUHU21623XXSP,2013-06-11 14:03:00,
2013-06-11 10:05:00,60.4,57.2,29.70,WNW,292,0.0,2.0,89,0.00,,,0.63,WUHU21623XXSP,2013-06-11 14:05:00,
2013-06-11 10:06:00,60.4,57.2,29.70,WNW,292,0.0,2.0,89,0.00,,,0.63,WUHU21623XXSP,2013-06-11 14:06:00,
2013-06-11 10:07:00,60.4,57.2,29.70,WSW,247,0.0,0.0,89,0.00,,,0.63,WUHU21623XXSP,2013-06-11 14:07:00,
2013-06-11 10:08:00,60.4,57.2,29.70,WSW,247,0.0,0.0,89,0.00,,,0.63,WUHU21623XXSP,2013-06-11 14:08:00,
2013-06-11 10:10:00,60.3,57.1,29.70,NNW,337,0.0,0.0,89,0.00,,,0.63,WUHU21623XXSP,2013-06-11 14:10:00,
2013-06-11 10:12:00,60.3,57.1,29.70,SE,135,0.0,0.0,89,0.00,,,0.63,WUHU21623XXSP,2013-06-11 14:12:00,
2013-06-11 10:13:00,60.3,57.1,29.70,SE,135,0.0,0.0,89,0.00,,,0.63,WUHU21623XXSP,2013-06-11 14:13:00,
2013-06-11 10:15:00,60.3,57.1,29.70,NNE,22,0.0,0.0,89,0.00,,,0.63,WUHU21623XXSP,2013-06-11 14:15:00,
2013-06-11 10:17:00,60.4,57.2,29.70,SSW,202,0.0,0.0,89,0.00,,,0.63,WUHU21623XXSP,2013-06-11 14:17:00,
2013-06-11 10:18:00,60.4,57.2,29.70,SSW,202,0.0,0.0,89,0.00,,,0.63,WUHU21623XXSP,2013-06-11 14:18:00,
2013-06-11 10:21:00,60.4,57.2,29.70,SSE,157,1.6,1.6,89,0.00,,,0.63,WUHU21623XXSP,2013-06-11 14:21:00,
2013-06-11 10:22:00,60.4,57.2,29.70,SSE,157,1.6,1.6,89,0.00,,,0.63,WUHU21623XXSP,2013-06-11 14:22:00,
2013-06-11 10:24:00,60.4,57.2,29.70,NW,315,1.1,1.6,89,0.00,,,0.63,WUHU21623XXSP,2013-06-11 14:24:00,
2013-06-11 10:26:00,60.4,57.2,29.70,WSW,247,0.0,1.6,89,0.00,,,0.63,WUHU21623XXSP,2013-06-11 14:26:00,
2013-06-11 10:27:00,60.4,57.2,29.70,WSW,247,0.0,1.6,89,0.00,,,0.63,WUHU21623XXSP,2013-06-11 14:27:00,
2013-06-11 10:29:00,60.4,57.2,29.70,West,270,1.3,1.6,89,0.00,,,0.63,WUHU21623XXSP,2013-06-11 14:29:00,
2013-06-11 10:30:00,60.4,57.2,29.70,West,270,1.3,1.6,89,0.00,,,0.63,WUHU21623XXSP,2013-06-11 14:30:00,
2013-06-11 10:31:00,60.4,57.2,29.70,West,270,1.3,1.3,89,0.00,,,0.63,WUHU21623XXSP,2013-06-11 14:31:00,
2013-06-11 10:32:00,60.4,57.2,29.70,West,270,1.3,1.3,89,0.00,,,0.63,WUHU21623XXSP,2013-06-11 14:32:00,
2013-06-11 10:35:00,60.4,57.2,29.71,West,270,1.3,1.3,89,0.00,,,0.63,WUHU21623XXSP,2013-06-11 14:35:00,
2013-06-11 10:36:00,60.4,57.2,29.70,WNW,292,0.0,1.3,89,0.00,,,0.63,WUHU21623XXSP,2013-06-11 14:36:00,
2013-06-11 10:37:00,60.4,57.2,29.70,WNW,292,0.0,1.3,89,0.00,,,0.63,WUHU21623XXSP,2013-06-11 14:37:00,
2013-06-11 10:40:00,60.4,57.2,29.71,West,270,0.0,1.3,89,0.00,,,0.63,WUHU21623XXSP,2013-06-11 14:40:00,
2013-06-11 10:41:00,60.4,57.2,29.71,West,270,0.0,1.3,89,0.00,,,0.63,WUHU21623XXSP,2013-06-11 14:41:00,
2013-06-11 10:42:00,60.4,56.9,29.71,West,270,4.7,4.7,88,0.00,,,0.63,WUHU21623XXSP,2013-06-11 14:42:00,
2013-06-11 10:43:00,60.4,56.9,29.71,West,270,4.7,4.7,88,0.00,,,0.63,WUHU21623XXSP,2013-06-11 14:43:00,
2013-06-11 10:45:00,60.4,56.9,29.70,West,270,4.7,4.7,88,0.00,,,0.63,WUHU21623XXSP,2013-06-11 14:45:00,
2013-06-11 10:46:00,60.4,56.9,29.70,West,270,4.7,4.7,88,0.00,,,0.63,WUHU21623XXSP,2013-06-11 14:46:00,
2013-06-11 10:47:00,60.4,56.9,29.70,NNW,337,0.0,4.7,88,0.00,,,0.63,WUHU21623XXSP,2013-06-11 14:47:00,
2013-06-11 10:48:00,60.4,56.9,29.70,NNW,337,0.0,4.7,88,0.00,,,0.63,WUHU21623XXSP,2013-06-11 14:48:00,
2013-06-11 10:50:00,60.4,56.9,29.70,WSW,247,2.0,4.7,88,0.00,,,0.63,WUHU21623XXSP,2013-06-11 14:50:00,
2013-06-11 10:51:00,60.4,56.9,29.70,West,270,2.0,4.7,88,0.00,,,0.63,WUHU21623XXSP,2013-06-11 14:51:00,
2013-06-11 10:52:00,60.4,56.9,29.70,West,270,2.0,4.7,88,0.00,,,0.63,WUHU21623XXSP,2013-06-11 14:52:00,
2013-06-11 10:53:00,60.4,56.9,29.71,NNE,22,0.0,4.7,88,0.00,,,0.63,WUHU21623XXSP,2013-06-11 14:53:00,
2013-06-11 10:55:00,60.4,56.9,29.71,NNE,22,0.0,2.0,88,0.00,,,0.63,WUHU21623XXSP,2013-06-11 14:55:00,
2013-06-11 10:56:00,60.4,56.9,29.71,NNE,22,0.0,2.0,88,0.00,,,0.63,WUHU21623XXSP,2013-06-11 14:56:00,
2013-06-11 10:57:00,60.4,56.9,29.71,South,180,0.0,2.0,88,0.00,,,0.63,WUHU21623XXSP,2013-06-11 14:57:00,
2013-06-11 10:58:00,60.4,56.9,29.71,South,180,0.0,2.0,88,0.00,,,0.63,WUHU21623XXSP,2013-06-11 14:58:00,
2013-06-11 10:59:00,60.4,56.9,29.71,WNW,292,0.0,2.0,88,0.00,,,0.63,WUHU21623XXSP,2013-06-11 14:59:00,
2013-06-11 11:00:00,60.4,56.9,29.71,WNW,292,0.0,0.0,88,0.00,,,0.63,WUHU21623XXSP,2013-06-11 15:00:00,
2013-06-11 11:01:00,60.4,56.9,29.71,WNW,292,0.0,0.0,88,0.00,,,0.63,WUHU21623XXSP,2013-06-11 15:01:00,
2013-06-11 11:02:00,60.4,56.9,29.71,WSW,247,0.0,0.0,88,0.00,,,0.63,WUHU21623XXSP,2013-06-11 15:02:00,
2013-06-11 11:04:00,60.4,56.9,29.71,NE,45,0.0,0.0,88,0.00,,,0.63,WUHU21623XXSP,2013-06-11 15:04:00,
2013-06-11 11:06:00,60.6,57.1,29.71,West,270,0.0,0.0,88,0.00,,,0.63,WUHU21623XXSP,2013-06-11 15:06:00,
2013-06-11 11:08:00,60.4,56.9,29.71,WSW,247,1.3,1.3,88,0.00,,,0.63,WUHU21623XXSP,2013-06-11 15:08:00,
2013-06-11 11:09:00,60.4,56.9,29.71,WSW,247,1.3,1.3,88,0.00,,,0.63,WUHU21623XXSP,2013-06-11 15:09:00,
2013-06-11 11:11:00,60.4,56.9,29.71,NW,315,0.0,1.3,88,0.00,,,0.63,WUHU21623XXSP,2013-06-11 15:11:00,
2013-06-11 11:13:00,60.6,57.1,29.70,WNW,292,0.0,1.3,88,0.00,,,0.63,WUHU21623XXSP,2013-06-11 15:13:00,
2013-06-11 11:14:00,60.6,57.1,29.71,WNW,292,0.0,1.3,88,0.00,,,0.63,WUHU21623XXSP,2013-06-11 15:14:00,
2013-06-11 11:16:00,60.6,57.1,29.71,NNE,22,0.0,1.3,88,0.00,,,0.63,WUHU21623XXSP,2013-06-11 15:16:00,
2013-06-11 11:18:00,60.6,57.1,29.71,NNE,22,0.0,0.0,88,0.00,,,0.63,WUHU21623XXSP,2013-06-11 15:18:00,
2013-06-11 11:19:00,60.6,57.1,29.70,NW,315,0.0,0.0,88,0.00,,,0.63,WUHU21623XXSP,2013-06-11 15:19:00,
2013-06-11 11:21:00,60.6,57.1,29.70,NNE,22,0.0,0.0,88,0.00,,,0.63,WUHU21623XXSP,2013-06-11 15:21:00,
2013-06-11 11:23:00,60.6,57.1,29.70,NNE,22,0.0,0.0,88,0.00,,,0.63,WUHU21623XXSP,2013-06-11 15:23:00,
2013-06-11 11:24:00,60.6,57.1,29.70,NNE,22,0.0,0.0,88,0.00,,,0.63,WUHU21623XXSP,2013-06-11 15:24:00,
2013-06-11 11:27:00,61.0,57.4,29.71,West,270,0.0,0.0,88,0.00,,,0.63,WUHU21623XXSP,2013-06-11 15:27:00,
2013-06-11 11:28:00,61.0,57.4,29.71,West,270,0.0,0.0,88,0.00,,,0.63,WUHU21623XXSP,2013-06-11 15:28:00,
2013-06-11 11:29:00,61.2,57.4,29.71,West,270,0.0,0.0,88,0.00,,,0.63,WUHU21623XXSP,2013-06-11 15:29:00,
2013-06-11 11:30:00,61.2,57.4,29.71,West,270,0.0,0.0,88,0.00,,,0.63,WUHU21623XXSP,2013-06-11 15:30:00,
2013-06-11 11:32:00,61.2,57.6,29.70,West,270,0.0,0.0,88,0.00,,,0.63,WUHU21623XXSP,2013-06-11 15:32:00,
2013-06-11 11:33:00,61.2,57.6,29.71,West,270,3.1,3.1,88,0.00,,,0.63,WUHU21623XXSP,2013-06-11 15:33:00,
2013-06-11 11:34:00,61.2,57.6,29.71,West,270,3.1,3.1,88,0.00,,,0.63,WUHU21623XXSP,2013-06-11 15:34:00,
2013-06-11 11:36:00,61.2,57.6,29.71,NE,45,2.2,3.1,88,0.00,,,0.63,WUHU21623XXSP,2013-06-11 15:36:00,
2013-06-11 11:37:00,61.2,57.6,29.71,NE,45,2.2,3.1,88,0.00,,,0.63,WUHU21623XXSP,2013-06-11 15:37:00,
2013-06-11 11:38:00,61.2,57.6,29.71,NE,45,2.2,3.1,88,0.00,,,0.63,WUHU21623XXSP,2013-06-11 15:38:00,
2013-06-11 11:39:00,61.2,57.6,29.71,SW,225,1.6,3.1,88,0.00,,,0.63,WUHU21623XXSP,2013-06-11 15:39:00,
2013-06-11 11:41:00,61.2,57.6,29.71,SW,225,1.6,3.1,88,0.00,,,0.63,WUHU21623XXSP,2013-06-11 15:41:00,
2013-06-11 11:42:00,61.2,57.3,29.71,West,270,2.5,3.1,87,0.00,,,0.63,WUHU21623XXSP,2013-06-11 15:42:00,
2013-06-11 11:43:00,61.2,57.3,29.71,West,270,2.5,2.5,87,0.00,,,0.63,WUHU21623XXSP,2013-06-11 15:43:00,
2013-06-11 11:45:00,61.2,57.3,29.71,North,0,0.0,2.5,87,0.00,,,0.63,WUHU21623XXSP,2013-06-11 15:45:00,
2013-06-11 11:47:00,61.0,57.1,29.70,NNE,22,0.0,2.5,87,0.00,,,0.63,WUHU21623XXSP,2013-06-11 15:47:00,
2013-06-11 11:48:00,61.0,57.1,29.70,NNE,22,0.0,2.5,87,0.00,,,0.63,WUHU21623XXSP,2013-06-11 15:48:00,
2013-06-11 11:49:00,61.2,57.1,29.70,NNE,22,0.0,2.5,87,0.00,,,0.63,WUHU21623XXSP,2013-06-11 15:49:00,
2013-06-11 11:50:00,61.2,57.3,29.70,NNE,22,0.0,2.5,87,0.00,,,0.63,WUHU21623XXSP,2013-06-11 15:50:00,
2013-06-11 11:52:00,61.2,57.3,29.71,SW,225,0.0,0.0,87,0.00,,,0.63,WUHU21623XXSP,2013-06-11 15:52:00,
2013-06-11 11:53:00,61.2,57.3,29.71,SW,225,0.0,0.0,87,0.00,,,0.63,WUHU21623XXSP,2013-06-11 15:53:00,
2013-06-11 11:54:00,61.2,57.3,29.71,SW,225,0.0,0.0,87,0.00,,,0.63,WUHU21623XXSP,2013-06-11 15:54:00,
2013-06-11 11:55:00,61.2,57.3,29.71,WNW,292,2.2,2.2,87,0.00,,,0.63,WUHU21623XXSP,2013-06-11 15:55:00,
2013-06-11 11:57:00,61.3,57.3,29.70,WNW,292,2.2,2.2,87,0.00,,,0.63,WUHU21623XXSP,2013-06-11 15:57:00,
2013-06-11 11:58:00,61.3,57.3,29.70,WNW,292,2.2,2.2,87,0.00,,,0.63,WUHU21623XXSP,2013-06-11 15:58:00,
2013-06-11 11:59:00,61.3,57.5,29.70,WNW,292,2.2,2.2,87,0.00,,,0.63,WUHU21623XXSP,2013-06-11 15:59:00,
2013-06-11 12:00:00,61.3,57.5,29.70,WNW,292,2.2,2.2,87,0.00,,,0.63,WUHU21623XXSP,2013-06-11 16:00:00,
2013-06-11 12:02:00,61.3,57.5,29.70,West,270,0.0,2.2,87,0.00,,,0.63,WUHU21623XXSP,2013-06-11 16:02:00,
2013-06-11 12:03:00,61.5,57.6,29.70,NNW,337,0.0,2.2,87,0.00,,,0.63,WUHU21623XXSP,2013-06-11 16:03:00,
2013-06-11 12:04:00,61.5,57.6,29.70,NNW,337,0.0,2.2,87,0.00,,,0.63,WUHU21623XXSP,2013-06-11 16:04:00,
2013-06-11 12:06:00,61.5,57.6,29.70,NNW,337,0.0,2.2,87,0.00,,,0.63,WUHU21623XXSP,2013-06-11 16:06:00,
2013-06-11 12:07:00,61.5,57.6,29.70,NNW,337,0.0,2.2,87,0.00,,,0.63,WUHU21623XXSP,2013-06-11 16:07:00,
2013-06-11 12:08:00,61.5,57.6,29.70,NNW,337,0.0,2.2,87,0.00,,,0.63,WUHU21623XXSP,2013-06-11 16:08:00,
2013-06-11 12:10:00,61.5,57.3,29.70,WSW,247,6.3,6.3,86,0.00,,,0.63,WUHU21623XXSP,2013-06-11 16:10:00,
2013-06-11 12:11:00,61.5,57.3,29.70,WSW,247,6.3,6.3,86,0.00,,,0.63,WUHU21623XXSP,2013-06-11 16:11:00,
2013-06-11 12:13:00,61.5,57.3,29.70,WSW,247,6.3,6.3,86,0.00,,,0.63,WUHU21623XXSP,2013-06-11 16:13:00,
2013-06-11 12:16:00,61.5,57.3,29.70,WNW,292,0.0,6.3,86,0.00,,,0.63,WUHU21623XXSP,2013-06-11 16:16:00,
2013-06-11 12:17:00,61.5,57.3,29.70,WNW,292,0.0,6.3,86,0.00,,,0.63,WUHU21623XXSP,2013-06-11 16:17:00,
2013-06-11 12:18:00,61.5,57.3,29.70,WNW,292,0.0,6.3,86,0.00,,,0.63,WUHU21623XXSP,2013-06-11 16:18:00,
2013-06-11 12:19:00,61.5,57.3,29.70,WNW,292,0.0,6.3,86,0.00,,,0.63,WUHU21623XXSP,2013-06-11 16:19:00,
2013-06-11 12:22:00,61.7,57.5,29.70,West,270,0.0,6.3,86,0.00,,,0.63,WUHU21623XXSP,2013-06-11 16:22:00,
2013-06-11 12:23:00,61.7,57.5,29.70,West,270,0.0,6.3,86,0.00,,,0.63,WUHU21623XXSP,2013-06-11 16:23:00,
2013-06-11 12:24:00,61.7,57.5,29.70,West,270,0.0,0.0,86,0.00,,,0.63,WUHU21623XXSP,2013-06-11 16:24:00,
2013-06-11 12:27:00,61.7,57.5,29.70,NNW,337,0.0,0.0,86,0.00,,,0.63,WUHU21623XXSP,2013-06-11 16:27:00,
2013-06-11 12:28:00,61.7,57.5,29.70,NNW,337,0.0,0.0,86,0.00,,,0.63,WUHU21623XXSP,2013-06-11 16:28:00,
2013-06-11 12:30:00,61.9,57.7,29.70,NNW,337,0.0,0.0,86,0.00,,,0.63,WUHU21623XXSP,2013-06-11 16:30:00,
2013-06-11 12:33:00,61.9,57.7,29.70,NNW,337,0.0,0.0,86,0.00,,,0.63,WUHU21623XXSP,2013-06-11 16:33:00,
2013-06-11 12:34:00,61.9,57.7,29.70,NNW,337,0.0,0.0,86,0.00,,,0.63,WUHU21623XXSP,2013-06-11 16:34:00,
2013-06-11 12:35:00,62.1,57.8,29.70,NW,315,0.0,0.0,86,0.00,,,0.63,WUHU21623XXSP,2013-06-11 16:35:00,
2013-06-11 12:38:00,62.1,57.8,29.70,NW,315,0.0,0.0,86,0.00,,,0.63,WUHU21623XXSP,2013-06-11 16:38:00,
2013-06-11 12:39:00,62.1,57.8,29.70,NW,315,0.0,0.0,86,0.00,,,0.63,WUHU21623XXSP,2013-06-11 16:39:00,
2013-06-11 12:40:00,62.2,58.0,29.70,North,0,0.0,0.0,86,0.00,,,0.63,WUHU21623XXSP,2013-06-11 16:40:00,
2013-06-11 12:43:00,62.2,58.0,29.70,NW,315,0.0,0.0,86,0.00,,,0.63,WUHU21623XXSP,2013-06-11 16:43:00,
2013-06-11 12:44:00,62.4,58.2,29.70,NW,315,1.1,1.1,86,0.00,,,0.63,WUHU21623XXSP,2013-06-11 16:44:00,
2013-06-11 12:46:00,62.4,58.2,29.70,East,90,0.0,1.1,86,0.00,,,0.63,WUHU21623XXSP,2013-06-11 16:46:00,
2013-06-11 12:48:00,62.4,57.8,29.70,WSW,247,1.6,1.6,85,0.00,,,0.63,WUHU21623XXSP,2013-06-11 16:48:00,
2013-06-11 12:49:00,62.4,57.8,29.70,WSW,247,1.6,1.6,85,0.00,,,0.63,WUHU21623XXSP,2013-06-11 16:49:00,
2013-06-11 12:51:00,62.6,58.0,29.70,West,270,2.0,2.0,85,0.00,,,0.63,WUHU21623XXSP,2013-06-11 16:51:00,
2013-06-11 12:53:00,62.8,58.0,29.70,West,270,2.0,2.0,85,0.00,,,0.63,WUHU21623XXSP,2013-06-11 16:53:00,
2013-06-11 12:54:00,62.8,58.0,29.70,West,270,2.0,2.0,85,0.00,,,0.63,WUHU21623XXSP,2013-06-11 16:54:00,
2013-06-11 12:55:00,62.8,58.2,29.70,WSW,247,3.4,3.4,85,0.00,,,0.63,WUHU21623XXSP,2013-06-11 16:55:00,
2013-06-11 12:58:00,62.8,58.2,29.70,WSW,247,4.5,4.5,85,0.00,,,0.63,WUHU21623XXSP,2013-06-11 16:58:00,
2013-06-11 12:59:00,62.6,58.0,29.70,West,270,0.0,4.5,85,0.00,,,0.63,WUHU21623XXSP,2013-06-11 16:59:00,
2013-06-11 13:00:00,62.6,58.0,29.70,West,270,0.0,4.5,85,0.00,,,0.63,WUHU21623XXSP,2013-06-11 17:00:00,
2013-06-11 13:03:00,62.8,58.2,29.70,North,0,0.0,4.5,85,0.00,,,0.63,WUHU21623XXSP,2013-06-11 17:03:00,
2013-06-11 13:04:00,62.8,58.2,29.70,North,0,0.0,4.5,85,0.00,,,0.63,WUHU21623XXSP,2013-06-11 17:04:00,
2013-06-11 13:05:00,62.8,58.2,29.70,North,0,0.0,4.5,85,0.00,,,0.63,WUHU21623XXSP,2013-06-11 17:05:00,
2013-06-11 13:08:00,63.0,58.2,29.70,West,270,4.5,4.5,85,0.00,,,0.63,WUHU21623XXSP,2013-06-11 17:08:00,
2013-06-11 13:09:00,63.0,58.4,29.70,NW,315,0.0,4.5,85,0.00,,,0.63,WUHU21623XXSP,2013-06-11 17:09:00,
2013-06-11 13:10:00,63.0,58.4,29.70,NW,315,0.0,4.5,85,0.00,,,0.63,WUHU21623XXSP,2013-06-11 17:10:00,
2013-06-11 13:13:00,63.0,58.4,29.70,West,270,0.0,4.5,85,0.00,,,0.63,WUHU21623XXSP,2013-06-11 17:13:00,
2013-06-11 13:14:00,63.0,58.4,29.70,North,0,0.0,4.5,85,0.00,,,0.63,WUHU21623XXSP,2013-06-11 17:14:00,
2013-06-11 13:15:00,63.0,58.4,29.70,North,0,0.0,4.5,85,0.00,,,0.63,WUHU21623XXSP,2013-06-11 17:15:00,
2013-06-11 13:18:00,63.1,58.2,29.70,WNW,292,1.1,1.1,84,0.00,,,0.63,WUHU21623XXSP,2013-06-11 17:18:00,
2013-06-11 13:19:00,63.1,58.2,29.70,WNW,292,1.1,1.1,84,0.00,,,0.63,WUHU21623XXSP,2013-06-11 17:19:00,
2013-06-11 13:20:00,63.1,58.2,29.70,WNW,292,1.1,1.1,84,0.00,,,0.63,WUHU21623XXSP,2013-06-11 17:20:00,
2013-06-11 13:23:00,63.0,58.0,29.70,SW,225,2.0,5.1,84,0.00,,,0.63,WUHU21623XXSP,2013-06-11 17:23:00,
2013-06-11 13:24:00,63.0,58.0,29.70,SW,225,2.0,5.1,84,0.00,,,0.63,WUHU21623XXSP,2013-06-11 17:24:00,
2013-06-11 13:25:00,62.8,57.8,29.70,WSW,247,0.0,5.1,84,0.00,,,0.63,WUHU21623XXSP,2013-06-11 17:25:00,
2013-06-11 13:26:00,62.8,57.8,29.70,WSW,247,0.0,5.1,84,0.00,,,0.63,WUHU21623XXSP,2013-06-11 17:26:00,
2013-06-11 13:29:00,62.8,57.8,29.70,SW,225,2.5,5.1,84,0.00,,,0.63,WUHU21623XXSP,2013-06-11 17:29:00,
2013-06-11 13:30:00,62.8,57.8,29.70,SW,225,2.5,5.1,84,0.00,,,0.63,WUHU21623XXSP,2013-06-11 17:30:00,
2013-06-11 13:31:00,62.8,57.8,29.69,SW,225,2.5,2.5,84,0.00,,,0.63,WUHU21623XXSP,2013-06-11 17:31:00,
2013-06-11 13:34:00,62.8,57.8,29.69,SW,225,2.5,2.5,84,0.00,,,0.63,WUHU21623XXSP,2013-06-11 17:34:00,
2013-06-11 13:35:00,62.8,57.8,29.70,West,270,0.0,2.5,84,0.00,,,0.63,WUHU21623XXSP,2013-06-11 17:35:00,
2013-06-11 13:36:00,62.8,57.8,29.70,West,270,0.0,2.5,84,0.00,,,0.63,WUHU21623XXSP,2013-06-11 17:36:00,
2013-06-11 13:39:00,62.8,57.8,29.70,West,270,0.0,2.5,84,0.00,,,0.63,WUHU21623XXSP,2013-06-11 17:39:00,
2013-06-11 13:40:00,62.8,57.8,29.70,WNW,292,2.0,2.5,84,0.00,,,0.63,WUHU21623XXSP,2013-06-11 17:40:00,
2013-06-11 13:41:00,62.8,57.8,29.70,WNW,292,2.0,2.5,84,0.00,,,0.63,WUHU21623XXSP,2013-06-11 17:41:00,
2013-06-11 13:44:00,63.0,57.7,29.69,WSW,247,1.3,2.0,83,0.00,,,0.63,WUHU21623XXSP,2013-06-11 17:44:00,
2013-06-11 13:45:00,63.0,57.7,29.69,WSW,247,1.3,2.0,83,0.00,,,0.63,WUHU21623XXSP,2013-06-11 17:45:00,
2013-06-11 13:46:00,63.0,57.7,29.69,WSW,247,1.3,2.0,83,0.00,,,0.63,WUHU21623XXSP,2013-06-11 17:46:00,
2013-06-11 13:47:00,63.1,57.9,29.69,NW,315,0.0,2.0,83,0.00,,,0.63,WUHU21623XXSP,2013-06-11 17:47:00,
2013-06-11 13:49:00,63.0,57.9,29.69,NW,315,0.0,2.0,83,0.00,,,0.63,WUHU21623XXSP,2013-06-11 17:49:00,
2013-06-11 13:50:00,63.0,57.9,29.69,NW,315,0.0,1.3,83,0.00,,,0.63,WUHU21623XXSP,2013-06-11 17:50:00,
2013-06-11 13:52:00,63.1,57.9,29.69,WNW,292,2.0,2.0,83,0.00,,,0.63,WUHU21623XXSP,2013-06-11 17:52:00,
2013-06-11 13:54:00,63.1,57.9,29.69,WNW,292,2.0,2.0,83,0.00,,,0.63,WUHU21623XXSP,2013-06-11 17:54:00,
2013-06-11 13:55:00,63.1,57.9,29.69,NNW,337,0.0,2.0,83,0.00,,,0.63,WUHU21623XXSP,2013-06-11 17:55:00,
2013-06-11 13:56:00,63.1,57.9,29.69,NNW,337,0.0,2.0,83,0.00,,,0.63,WUHU21623XXSP,2013-06-11 17:56:00,
2013-06-11 13:57:00,63.3,58.0,29.69,WSW,247,0.0,2.0,83,0.00,,,0.63,WUHU21623XXSP,2013-06-11 17:57:00,
2013-06-11 13:59:00,63.5,58.2,29.69,WNW,292,0.0,2.0,83,0.00,,,0.63,WUHU21623XXSP,2013-06-11 17:59:00,
2013-06-11 14:00:00,63.5,58.2,29.69,WNW,292,0.0,2.0,83,0.00,,,0.63,WUHU21623XXSP,2013-06-11 18:00:00,
2013-06-11 14:02:00,63.5,58.2,29.69,West,270,0.0,2.0,83,0.00,,,0.63,WUHU21623XXSP,2013-06-11 18:02:00,
2013-06-11 14:04:00,63.5,58.2,29.69,West,270,1.1,1.1,83,0.00,,,0.63,WUHU21623XXSP,2013-06-11 18:04:00,
2013-06-11 14:05:00,63.5,58.2,29.68,WNW,292,0.0,1.1,83,0.00,,,0.63,WUHU21623XXSP,2013-06-11 18:05:00,
2013-06-11 14:07:00,63.5,58.2,29.68,WNW,292,0.0,1.1,83,0.00,,,0.63,WUHU21623XXSP,2013-06-11 18:07:00,
2013-06-11 14:10:00,63.5,57.9,29.68,WSW,247,0.7,1.1,82,0.00,,,0.63,WUHU21623XXSP,2013-06-11 18:10:00,
2013-06-11 14:12:00,63.5,58.2,29.68,West,270,0.0,1.1,83,0.00,,,0.63,WUHU21623XXSP,2013-06-11 18:12:00,
2013-06-11 14:13:00,63.5,58.2,29.68,West,270,0.0,1.1,83,0.00,,,0.63,WUHU21623XXSP,2013-06-11 18:13:00,
2013-06-11 14:15:00,63.5,58.2,29.68,North,0,0.0,0.7,83,0.00,,,0.63,WUHU21623XXSP,2013-06-11 18:15:00,
2013-06-11 14:17:00,63.7,58.4,29.68,SW,225,2.9,2.9,83,0.00,,,0.63,WUHU21623XXSP,2013-06-11 18:17:00,
2013-06-11 14:18:00,63.7,58.4,29.68,SW,225,2.9,2.9,83,0.00,,,0.63,WUHU21623XXSP,2013-06-11 18:18:00,
2013-06-11 14:20:00,63.7,58.1,29.68,WSW,247,2.7,2.9,82,0.00,,,0.63,WUHU21623XXSP,2013-06-11 18:20:00,
2013-06-11 14:22:00,63.7,58.1,29.68,WSW,247,2.7,2.9,82,0.00,,,0.63,WUHU21623XXSP,2013-06-11 18:22:00,
2013-06-11 14:23:00,63.7,58.1,29.68,WSW,247,2.7,2.9,82,0.00,,,0.63,WUHU21623XXSP,2013-06-11 18:23:00,
2013-06-11 14:25:00,63.7,58.1,29.68,SW,225,2.2,2.9,82,0.00,,,0.63,WUHU21623XXSP,2013-06-11 18:25:00,
2013-06-11 14:26:00,63.7,58.1,29.68,SW,225,2.2,2.9,82,0.00,,,0.63,WUHU21623XXSP,2013-06-11 18:26:00,
2013-06-11 14:27:00,63.7,58.1,29.68,SSW,202,0.0,2.7,82,0.00,,,0.63,WUHU21623XXSP,2013-06-11 18:27:00,
2013-06-11 14:28:00,63.7,58.1,29.68,SSW,202,0.0,2.7,82,0.00,,,0.63,WUHU21623XXSP,2013-06-11 18:28:00,
2013-06-11 14:31:00,63.7,58.1,29.68,East,90,0.0,2.7,82,0.00,,,0.63,WUHU21623XXSP,2013-06-11 18:31:00,
2013-06-11 14:32:00,63.7,58.1,29.68,East,90,0.0,2.2,82,0.00,,,0.63,WUHU21623XXSP,2013-06-11 18:32:00,
2013-06-11 14:33:00,63.7,58.1,29.68,East,90,0.0,2.2,82,0.00,,,0.63,WUHU21623XXSP,2013-06-11 18:33:00,
2013-06-11 14:36:00,64.0,58.4,29.68,North,0,0.0,0.0,82,0.00,,,0.63,WUHU21623XXSP,2013-06-11 18:36:00,
2013-06-11 14:37:00,64.0,58.4,29.68,East,90,0.0,0.0,82,0.00,,,0.63,WUHU21623XXSP,2013-06-11 18:37:00,
2013-06-11 14:38:00,64.0,58.4,29.68,East,90,0.0,0.0,82,0.00,,,0.63,WUHU21623XXSP,2013-06-11 18:38:00,
2013-06-11 14:39:00,64.0,58.4,29.68,East,90,0.0,0.0,82,0.00,,,0.63,WUHU21623XXSP,2013-06-11 18:39:00,
2013-06-11 14:42:00,64.2,58.6,29.68,West,270,2.5,2.5,82,0.00,,,0.63,WUHU21623XXSP,2013-06-11 18:42:00,
2013-06-11 14:43:00,64.2,58.6,29.68,West,270,2.5,2.5,82,0.00,,,0.63,WUHU21623XXSP,2013-06-11 18:43:00,
2013-06-11 14:44:00,64.2,58.6,29.68,WSW,247,0.0,2.5,82,0.00,,,0.63,WUHU21623XXSP,2013-06-11 18:44:00,
2013-06-11 14:47:00,64.2,58.6,29.68,NNW,337,1.1,2.5,82,0.00,,,0.63,WUHU21623XXSP,2013-06-11 18:47:00,
2013-06-11 14:48:00,64.2,58.6,29.68,NNW,337,1.1,2.5,82,0.00,,,0.63,WUHU21623XXSP,2013-06-11 18:48:00,
2013-06-11 14:49:00,64.2,58.6,29.68,NNW,337,1.1,2.5,82,0.00,,,0.63,WUHU21623XXSP,2013-06-11 18:49:00,
2013-06-11 14:52:00,64.2,58.6,29.68,West,270,0.0,1.1,82,0.00,,,0.63,WUHU21623XXSP,2013-06-11 18:52:00,
2013-06-11 14:53:00,64.2,58.6,29.68,SW,225,0.0,1.1,82,0.00,,,0.63,WUHU21623XXSP,2013-06-11 18:53:00,
2013-06-11 14:54:00,64.2,58.6,29.68,WSW,247,0.0,1.1,82,0.00,,,0.63,WUHU21623XXSP,2013-06-11 18:54:00,
2013-06-11 14:57:00,64.2,58.6,29.68,WSW,247,1.6,1.6,82,0.00,,,0.63,WUHU21623XXSP,2013-06-11 18:57:00,
2013-06-11 14:58:00,64.2,58.6,29.68,WSW,247,1.6,1.6,82,0.00,,,0.63,WUHU21623XXSP,2013-06-11 18:58:00,
2013-06-11 14:59:00,64.0,58.1,29.67,WNW,292,0.0,1.6,81,0.00,,,0.63,WUHU21623XXSP,2013-06-11 18:59:00,
2013-06-11 15:02:00,64.2,58.6,29.67,NW,315,0.0,1.6,82,0.00,,,0.63,WUHU21623XXSP,2013-06-11 19:02:00,
2013-06-11 15:03:00,64.2,58.6,29.67,SE,135,0.0,1.6,82,0.00,,,0.63,WUHU21623XXSP,2013-06-11 19:03:00,
2013-06-11 15:04:00,64.2,58.6,29.67,SE,135,0.0,1.6,82,0.00,,,0.63,WUHU21623XXSP,2013-06-11 19:04:00,
2013-06-11 15:08:00,64.0,58.4,29.67,ENE,67,1.6,1.6,82,0.00,,,0.63,WUHU21623XXSP,2013-06-11 19:08:00,
2013-06-11 15:09:00,64.0,58.4,29.67,NNE,22,0.0,1.6,82,0.00,,,0.63,WUHU21623XXSP,2013-06-11 19:09:00,
2013-06-11 15:13:00,64.0,58.4,29.67,West,270,0.0,1.6,82,0.00,,,0.63,WUHU21623XXSP,2013-06-11 19:13:00,
2013-06-11 15:15:00,64.0,58.4,29.66,WSW,247,0.0,1.6,82,0.00,,,0.63,WUHU21623XXSP,2013-06-11 19:15:00,
2013-06-11 15:18:00,64.0,58.4,29.66,WSW,247,0.0,0.0,82,0.00,,,0.63,WUHU21623XXSP,2013-06-11 19:18:00,
2013-06-11 15:19:00,64.0,58.4,29.66,WSW,247,0.0,0.0,82,0.00,,,0.63,WUHU21623XXSP,2013-06-11 19:19:00,
2013-06-11 15:20:00,64.0,58.4,29.66,WSW,247,0.0,0.0,82,0.00,,,0.63,WUHU21623XXSP,2013-06-11 19:20:00,
2013-06-11 15:23:00,64.0,58.4,29.66,NE,45,0.0,0.0,82,0.00,,,0.63,WUHU21623XXSP,2013-06-11 19:23:00,
2013-06-11 15:24:00,64.0,58.4,29.66,NE,45,0.0,0.0,82,0.00,,,0.63,WUHU21623XXSP,2013-06-11 19:24:00,
2013-06-11 15:25:00,64.0,58.4,29.66,NE,45,0.0,0.0,82,0.00,,,0.63,WUHU21623XXSP,2013-06-11 19:25:00,
2013-06-11 15:28:00,64.0,58.4,29.66,WSW,247,0.0,0.0,82,0.00,,,0.63,WUHU21623XXSP,2013-06-11 19:28:00,
2013-06-11 15:29:00,64.2,58.6,29.66,SW,225,2.2,2.2,82,0.00,,,0.63,WUHU21623XXSP,2013-06-11 19:29:00,
2013-06-11 15:30:00,64.2,58.6,29.66,SW,225,2.2,2.2,82,0.00,,,0.63,WUHU21623XXSP,2013-06-11 19:30:00,
2013-06-11 15:33:00,64.2,58.3,29.66,West,270,2.2,2.2,81,0.00,,,0.63,WUHU21623XXSP,2013-06-11 19:33:00,
2013-06-11 15:34:00,64.2,58.3,29.66,West,270,2.2,2.2,81,0.00,,,0.63,WUHU21623XXSP,2013-06-11 19:34:00,
2013-06-11 15:35:00,64.2,58.3,29.66,WSW,247,0.0,2.2,81,0.00,,,0.63,WUHU21623XXSP,2013-06-11 19:35:00,
2013-06-11 15:36:00,64.2,58.3,29.66,WSW,247,0.0,2.2,81,0.00,,,0.63,WUHU21623XXSP,2013-06-11 19:36:00,
2013-06-11 15:38:00,64.0,58.1,29.66,WSW,247,0.0,2.2,81,0.00,,,0.63,WUHU21623XXSP,2013-06-11 19:38:00,
2013-06-11 15:39:00,64.0,58.1,29.66,WSW,247,0.0,2.2,81,0.00,,,0.63,WUHU21623XXSP,2013-06-11 19:39:00,
2013-06-11 15:40:00,64.0,58.1,29.66,WSW,247,0.0,2.2,81,0.00,,,0.63,WUHU21623XXSP,2013-06-11 19:40:00,
2013-06-11 15:41:00,64.0,58.1,29.66,WSW,247,0.0,2.2,81,0.00,,,0.63,WUHU21623XXSP,2013-06-11 19:41:00,
2013-06-11 15:43:00,64.0,58.1,29.65,WSW,247,0.0,0.0,81,0.00,,,0.63,WUHU21623XXSP,2013-06-11 19:43:00,
2013-06-11 15:44:00,64.0,58.1,29.66,WNW,292,0.0,0.0,81,0.00,,,0.63,WUHU21623XXSP,2013-06-11 19:44:00,
2013-06-11 15:45:00,64.0,58.1,29.66,WNW,292,0.0,0.0,81,0.00,,,0.63,WUHU21623XXSP,2013-06-11 19:45:00,
2013-06-11 15:46:00,64.0,58.1,29.65,WSW,247,0.0,0.0,81,0.00,,,0.63,WUHU21623XXSP,2013-06-11 19:46:00,
2013-06-11 15:48:00,64.0,58.1,29.65,NNW,337,0.0,0.0,81,0.00,,,0.63,WUHU21623XXSP,2013-06-11 19:48:00,
2013-06-11 15:49:00,64.0,58.1,29.65,NNW,337,0.0,0.0,81,0.00,,,0.63,WUHU21623XXSP,2013-06-11 19:49:00,
2013-06-11 15:50:00,64.0,58.1,29.65,WSW,247,0.0,0.0,81,0.00,,,0.63,WUHU21623XXSP,2013-06-11 19:50:00,
2013-06-11 15:52:00,64.0,58.1,29.65,WSW,247,0.0,0.0,81,0.00,,,0.63,WUHU21623XXSP,2013-06-11 19:52:00,
2013-06-11 15:54:00,64.0,58.1,29.65,West,270,0.0,0.0,81,0.00,,,0.63,WUHU21623XXSP,2013-06-11 19:54:00,
2013-06-11 15:55:00,64.0,58.4,29.65,SSW,202,0.0,0.0,82,0.00,,,0.63,WUHU21623XXSP,2013-06-11 19:55:00,
2013-06-11 15:56:00,64.0,58.4,29.65,SSW,202,0.0,0.0,82,0.00,,,0.63,WUHU21623XXSP,2013-06-11 19:56:00,
2013-06-11 15:57:00,63.9,58.4,29.65,SSW,202,0.0,0.0,82,0.00,,,0.63,WUHU21623XXSP,2013-06-11 19:57:00,
2013-06-11 16:00:00,64.0,58.4,29.65,SSE,157,0.0,0.0,82,0.00,,,0.63,WUHU21623XXSP,2013-06-11 20:00:00,
2013-06-11 16:01:00,64.0,58.1,29.65,ESE,112,0.0,0.0,81,0.00,,,0.63,WUHU21623XXSP,2013-06-11 20:01:00,
2013-06-11 16:02:00,64.0,58.1,29.65,ESE,112,0.0,0.0,81,0.00,,,0.63,WUHU21623XXSP,2013-06-11 20:02:00,
2013-06-11 16:05:00,64.0,58.1,29.65,East,90,0.0,0.0,81,0.00,,,0.63,WUHU21623XXSP,2013-06-11 20:05:00,
2013-06-11 16:06:00,64.0,58.1,29.65,East,90,0.0,0.0,81,0.00,,,0.63,WUHU21623XXSP,2013-06-11 20:06:00,
2013-06-11 16:07:00,64.0,58.1,29.65,North,0,0.0,0.0,81,0.00,,,0.63,WUHU21623XXSP,2013-06-11 20:07:00,
2013-06-11 16:10:00,64.0,58.1,29.65,West,270,0.0,0.0,81,0.00,,,0.63,WUHU21623XXSP,2013-06-11 20:10:00,
2013-06-11 16:11:00,64.0,58.1,29.65,West,270,0.0,0.0,81,0.00,,,0.63,WUHU21623XXSP,2013-06-11 20:11:00,
2013-06-11 16:12:00,64.0,58.1,29.65,WSW,247,0.0,0.0,81,0.00,,,0.63,WUHU21623XXSP,2013-06-11 20:12:00,
2013-06-11 16:13:00,64.0,58.1,29.65,WSW,247,0.0,0.0,81,0.00,,,0.63,WUHU21623XXSP,2013-06-11 20:13:00,
2013-06-11 16:16:00,64.0,58.1,29.65,WNW,292,0.0,0.0,81,0.00,,,0.63,WUHU21623XXSP,2013-06-11 20:16:00,
2013-06-11 16:17:00,63.9,57.9,29.65,East,90,0.0,0.0,81,0.00,,,0.63,WUHU21623XXSP,2013-06-11 20:17:00,
2013-06-11 16:18:00,63.9,57.9,29.65,East,90,0.0,0.0,81,0.00,,,0.63,WUHU21623XXSP,2013-06-11 20:18:00,
2013-06-11 16:21:00,64.0,58.1,29.65,WSW,247,0.0,0.0,81,0.00,,,0.63,WUHU21623XXSP,2013-06-11 20:21:00,
2013-06-11 16:22:00,64.0,58.1,29.65,WSW,247,0.0,0.0,81,0.00,,,0.63,WUHU21623XXSP,2013-06-11 20:22:00,
2013-06-11 16:23:00,64.0,58.1,29.65,North,0,0.0,0.0,81,0.00,,,0.63,WUHU21623XXSP,2013-06-11 20:23:00,
2013-06-11 16:26:00,64.0,58.1,29.65,SE,135,0.9,0.9,81,0.00,,,0.63,WUHU21623XXSP,2013-06-11 20:26:00,
2013-06-11 16:27:00,64.0,58.1,29.65,ENE,67,0.0,0.9,81,0.00,,,0.63,WUHU21623XXSP,2013-06-11 20:27:00,
2013-06-11 16:29:00,64.0,58.1,29.65,SW,225,0.0,0.9,81,0.00,,,0.63,WUHU21623XXSP,2013-06-11 20:29:00,
2013-06-11 16:32:00,64.0,58.1,29.65,SSW,202,0.0,0.9,81,0.00,,,0.63,WUHU21623XXSP,2013-06-11 20:32:00,
2013-06-11 16:34:00,64.0,58.1,29.65,SSE,157,0.0,0.9,81,0.00,,,0.63,WUHU21623XXSP,2013-06-11 20:34:00,
2013-06-11 16:37:00,64.0,58.1,29.64,SSW,202,0.0,0.0,81,0.00,,,0.63,WUHU21623XXSP,2013-06-11 20:37:00,
2013-06-11 16:38:00,64.0,58.1,29.64,SSW,202,0.0,0.0,81,0.00,,,0.63,WUHU21623XXSP,2013-06-11 20:38:00,
2013-06-11 16:39:00,64.0,58.1,29.64,SSW,202,0.0,0.0,81,0.00,,,0.63,WUHU21623XXSP,2013-06-11 20:39:00,
2013-06-11 16:42:00,64.2,58.3,29.64,NE,45,0.9,0.9,81,0.00,,,0.63,WUHU21623XXSP,2013-06-11 20:42:00,
2013-06-11 16:43:00,64.2,58.3,29.64,NE,45,0.9,0.9,81,0.00,,,0.63,WUHU21623XXSP,2013-06-11 20:43:00,
2013-06-11 16:44:00,64.0,58.1,29.64,ENE,67,0.0,0.9,81,0.00,,,0.63,WUHU21623XXSP,2013-06-11 20:44:00,
2013-06-11 16:47:00,64.0,57.7,29.64,East,90,0.0,0.9,80,0.00,,,0.63,WUHU21623XXSP,2013-06-11 20:47:00,
2013-06-11 16:48:00,64.0,57.7,29.64,East,90,0.0,0.9,80,0.00,,,0.63,WUHU21623XXSP,2013-06-11 20:48:00,
2013-06-11 16:49:00,64.0,58.1,29.64,WSW,247,1.1,1.1,81,0.00,,,0.63,WUHU21623XXSP,2013-06-11 20:49:00,
2013-06-11 16:52:00,64.0,58.1,29.63,WSW,247,0.0,1.1,81,0.00,,,0.63,WUHU21623XXSP,2013-06-11 20:52:00,
2013-06-11 16:53:00,64.0,58.1,29.63,WSW,247,0.0,1.1,81,0.00,,,0.63,WUHU21623XXSP,2013-06-11 20:53:00,
2013-06-11 16:54:00,64.0,58.1,29.63,WNW,292,0.0,1.1,81,0.00,,,0.63,WUHU21623XXSP,2013-06-11 20:54:00,
2013-06-11 16:57:00,64.0,58.1,29.63,SE,135,0.0,1.1,81,0.00,,,0.63,WUHU21623XXSP,2013-06-11 20:57:00,
2013-06-11 16:58:00,64.0,58.1,29.63,SE,135,0.0,1.1,81,0.00,,,0.63,WUHU21623XXSP,2013-06-11 20:58:00,
2013-06-11 17:00:00,64.0,58.1,29.63,WSW,247,0.0,0.0,81,0.00,,,0.63,WUHU21623XXSP,2013-06-11 21:00:00,
2013-06-11 17:02:00,64.2,58.3,29.63,West,270,0.0,0.0,81,0.00,,,0.63,WUHU21623XXSP,2013-06-11 21:02:00,
2013-06-11 17:03:00,64.2,58.3,29.63,North,0,0.0,0.0,81,0.00,,,0.63,WUHU21623XXSP,2013-06-11 21:03:00,
2013-06-11 17:05:00,64.2,58.3,29.63,North,0,0.0,0.0,81,0.00,,,0.63,WUHU21623XXSP,2013-06-11 21:05:00,
2013-06-11 17:07:00,64.2,58.3,29.63,NNE,22,0.0,0.0,81,0.00,,,0.63,WUHU21623XXSP,2013-06-11 21:07:00,
2013-06-11 17:08:00,64.2,58.3,29.63,NNE,22,0.0,0.0,81,0.00,,,0.63,WUHU21623XXSP,2013-06-11 21:08:00,
2013-06-11 17:10:00,64.2,58.3,29.63,NW,315,0.0,0.0,81,0.00,,,0.63,WUHU21623XXSP,2013-06-11 21:10:00,
2013-06-11 17:13:00,64.4,58.4,29.63,NNE,22,0.0,0.0,81,0.00,,,0.63,WUHU21623XXSP,2013-06-11 21:13:00,
2013-06-11 17:14:00,64.2,57.9,29.63,NE,45,0.0,0.0,80,0.00,,,0.63,WUHU21623XXSP,2013-06-11 21:14:00,
2013-06-11 17:15:00,64.2,57.9,29.63,NE,45,0.0,0.0,80,0.00,,,0.63,WUHU21623XXSP,2013-06-11 21:15:00,
2013-06-11 17:18:00,64.2,57.9,29.62,North,0,0.0,0.0,80,0.00,,,0.63,WUHU21623XXSP,2013-06-11 21:18:00,
2013-06-11 17:19:00,64.2,57.9,29.62,North,0,0.0,0.0,80,0.00,,,0.63,WUHU21623XXSP,2013-06-11 21:19:00,
2013-06-11 17:20:00,64.2,57.9,29.62,SSE,157,0.0,0.0,80,0.00,,,0.63,WUHU21623XXSP,2013-06-11 21:20:00,
2013-06-11 17:23:00,64.2,57.9,29.61,NNE,22,0.0,0.0,80,0.00,,,0.63,WUHU21623XXSP,2013-06-11 21:23:00,
2013-06-11 17:24:00,64.2,57.9,29.61,SE,135,0.0,0.0,80,0.00,,,0.63,WUHU21623XXSP,2013-06-11 21:24:00,
2013-06-11 17:26:00,64.2,57.9,29.61,SSE,157,1.6,1.6,80,0.00,,,0.63,WUHU21623XXSP,2013-06-11 21:26:00,
2013-06-11 17:28:00,64.2,57.9,29.61,SSE,157,1.6,1.6,80,0.00,,,0.63,WUHU21623XXSP,2013-06-11 21:28:00,
2013-06-11 17:29:00,64.2,57.9,29.61,WSW,247,0.0,1.6,80,0.00,,,0.63,WUHU21623XXSP,2013-06-11 21:29:00,
2013-06-11 17:32:00,64.2,57.9,29.61,North,0,0.0,1.6,80,0.00,,,0.63,WUHU21623XXSP,2013-06-11 21:32:00,
2013-06-11 17:33:00,64.0,57.7,29.61,West,270,0.0,1.6,80,0.00,,,0.63,WUHU21623XXSP,2013-06-11 21:33:00,
2013-06-11 17:34:00,64.0,57.7,29.61,West,270,0.0,1.6,80,0.00,,,0.63,WUHU21623XXSP,2013-06-11 21:34:00,
2013-06-11 17:38:00,64.2,58.3,29.60,NNE,22,0.0,0.0,81,0.00,,,0.63,WUHU21623XXSP,2013-06-11 21:38:00,
2013-06-11 17:39:00,64.2,58.3,29.60,NNE,22,0.0,0.0,81,0.00,,,0.63,WUHU21623XXSP,2013-06-11 21:39:00,
2013-06-11 17:40:00,64.4,58.4,29.60,NE,45,0.0,0.0,81,0.00,,,0.63,WUHU21623XXSP,2013-06-11 21:40:00,
2013-06-11 17:43:00,64.6,58.6,29.60,ESE,112,0.0,0.0,81,0.00,,,0.63,WUHU21623XXSP,2013-06-11 21:43:00,
2013-06-11 17:44:00,64.6,58.3,29.60,East,90,0.0,0.0,80,0.00,,,0.63,WUHU21623XXSP,2013-06-11 21:44:00,
2013-06-11 17:45:00,64.6,58.3,29.60,East,90,0.0,0.0,80,0.00,,,0.63,WUHU21623XXSP,2013-06-11 21:45:00,
2013-06-11 17:49:00,64.2,57.9,29.60,SE,135,2.0,2.0,80,0.00,,,0.63,WUHU21623XXSP,2013-06-11 21:49:00,
2013-06-11 17:50:00,64.2,57.9,29.60,SE,135,2.0,2.0,80,0.00,,,0.63,WUHU21623XXSP,2013-06-11 21:50:00,
2013-06-11 17:54:00,64.2,57.9,29.60,ENE,67,0.0,2.0,80,0.00,,,0.63,WUHU21623XXSP,2013-06-11 21:54:00,
2013-06-11 17:55:00,64.2,57.9,29.60,SSE,157,2.9,2.9,80,0.00,,,0.63,WUHU21623XXSP,2013-06-11 21:55:00,
2013-06-11 17:59:00,64.0,57.7,29.60,ENE,67,0.0,2.9,80,0.00,,,0.63,WUHU21623XXSP,2013-06-11 21:59:00,
2013-06-11 18:00:00,64.0,57.7,29.60,ENE,67,0.0,2.9,80,0.00,,,0.63,WUHU21623XXSP,2013-06-11 22:00:00,
2013-06-11 18:04:00,63.7,57.4,29.60,ENE,67,0.0,0.0,80,0.00,,,0.63,WUHU21623XXSP,2013-06-11 22:04:00,
2013-06-11 18:05:00,63.7,57.4,29.60,NW,315,0.0,0.0,80,0.00,,,0.63,WUHU21623XXSP,2013-06-11 22:05:00,
2013-06-11 18:06:00,63.7,57.4,29.60,NW,315,0.0,0.0,80,0.00,,,0.63,WUHU21623XXSP,2013-06-11 22:06:00,
2013-06-11 18:10:00,63.5,57.2,29.60,WNW,292,0.0,0.0,80,0.00,,,0.63,WUHU21623XXSP,2013-06-11 22:10:00,
2013-06-11 18:11:00,63.5,57.2,29.60,WNW,292,0.0,0.0,80,0.00,,,0.63,WUHU21623XXSP,2013-06-11 22:11:00,
2013-06-11 18:12:00,63.5,57.2,29.60,NW,315,0.0,0.0,80,0.00,,,0.63,WUHU21623XXSP,2013-06-11 22:12:00,
2013-06-11 18:15:00,63.5,57.2,29.60,SE,135,0.0,0.0,80,0.00,,,0.63,WUHU21623XXSP,2013-06-11 22:15:00,
2013-06-11 18:16:00,63.3,57.4,29.60,ESE,112,0.0,0.0,81,0.00,,,0.63,WUHU21623XXSP,2013-06-11 22:16:00,
2013-06-11 18:17:00,63.3,57.4,29.60,ESE,112,0.0,0.0,81,0.00,,,0.63,WUHU21623XXSP,2013-06-11 22:17:00,
2013-06-11 18:20:00,63.1,57.2,29.60,SE,135,0.0,0.0,81,0.00,,,0.63,WUHU21623XXSP,2013-06-11 22:20:00,
2013-06-11 18:21:00,63.1,57.2,29.60,SE,135,0.0,0.0,81,0.00,,,0.63,WUHU21623XXSP,2013-06-11 22:21:00,
2013-06-11 18:22:00,63.1,57.2,29.60,SE,135,0.0,0.0,81,0.00,,,0.63,WUHU21623XXSP,2013-06-11 22:22:00,
2013-06-11 18:25:00,63.1,57.2,29.60,SSE,157,0.0,0.0,81,0.00,,,0.63,WUHU21623XXSP,2013-06-11 22:25:00,
2013-06-11 18:26:00,63.1,57.2,29.60,SSE,157,0.0,0.0,81,0.00,,,0.63,WUHU21623XXSP,2013-06-11 22:26:00,
2013-06-11 18:27:00,63.1,57.2,29.60,SE,135,0.0,0.0,81,0.00,,,0.63,WUHU21623XXSP,2013-06-11 22:27:00,
2013-06-11 18:31:00,63.1,57.2,29.60,West,270,0.0,0.0,81,0.00,,,0.63,WUHU21623XXSP,2013-06-11 22:31:00,
2013-06-11 18:32:00,63.1,57.2,29.60,West,270,0.0,0.0,81,0.00,,,0.63,WUHU21623XXSP,2013-06-11 22:32:00,
2013-06-11 18:36:00,63.0,57.0,29.60,NE,45,0.0,0.0,81,0.00,,,0.63,WUHU21623XXSP,2013-06-11 22:36:00,
2013-06-11 18:37:00,63.0,57.0,29.60,NE,45,0.0,0.0,81,0.00,,,0.63,WUHU21623XXSP,2013-06-11 22:37:00,
2013-06-11 18:38:00,62.8,56.8,29.60,North,0,0.0,0.0,81,0.00,,,0.63,WUHU21623XXSP,2013-06-11 22:38:00,
2013-06-11 18:41:00,62.8,56.8,29.60,East,90,0.0,0.0,81,0.00,,,0.63,WUHU21623XXSP,2013-06-11 22:41:00,
2013-06-11 18:42:00,62.6,57.0,29.59,East,90,0.0,0.0,82,0.00,,,0.63,WUHU21623XXSP,2013-06-11 22:42:00,
2013-06-11 18:43:00,62.6,57.0,29.59,East,90,0.0,0.0,82,0.00,,,0.63,WUHU21623XXSP,2013-06-11 22:43:00,
2013-06-11 18:46:00,62.4,56.8,29.60,SE,135,0.0,0.0,82,0.02,,,0.63,WUHU21623XXSP,2013-06-11 22:46:00,
2013-06-11 18:47:00,62.4,56.8,29.60,SE,135,0.0,0.0,82,0.02,,,0.63,WUHU21623XXSP,2013-06-11 22:47:00,
2013-06-11 18:48:00,62.4,56.8,29.60,SE,135,0.0,0.0,82,0.02,,,0.63,WUHU21623XXSP,2013-06-11 22:48:00,
2013-06-11 18:51:00,62.4,56.8,29.59,ENE,67,0.0,0.0,82,0.04,,,0.68,WUHU21623XXSP,2013-06-11 22:51:00,
2013-06-11 18:52:00,62.4,56.8,29.59,ENE,67,0.0,0.0,82,0.04,,,0.68,WUHU21623XXSP,2013-06-11 22:52:00,
2013-06-11 18:53:00,62.4,57.1,29.59,ESE,112,0.0,0.0,83,0.04,,,0.68,WUHU21623XXSP,2013-06-11 22:53:00,
2013-06-11 18:57:00,62.2,57.0,29.59,ESE,112,0.0,0.0,83,0.06,,,0.68,WUHU21623XXSP,2013-06-11 22:57:00,
2013-06-11 18:58:00,62.2,57.0,29.59,ESE,112,0.0,0.0,83,0.06,,,0.68,WUHU21623XXSP,2013-06-11 22:58:00,
2013-06-11 19:02:00,61.9,56.6,29.59,SE,135,0.0,0.0,83,0.06,,,0.70,WUHU21623XXSP,2013-06-11 23:02:00,
2013-06-11 19:03:00,61.9,56.6,29.59,ESE,112,0.0,0.0,83,0.06,,,0.70,WUHU21623XXSP,2013-06-11 23:03:00,
2013-06-11 19:04:00,61.9,56.6,29.59,ESE,112,0.0,0.0,83,0.06,,,0.70,WUHU21623XXSP,2013-06-11 23:04:00,
2013-06-11 19:07:00,61.7,56.8,29.58,ESE,112,0.0,0.0,84,0.08,,,0.70,WUHU21623XXSP,2013-06-11 23:07:00,
2013-06-11 19:09:00,61.7,56.8,29.58,ESE,112,0.0,0.0,84,0.08,,,0.70,WUHU21623XXSP,2013-06-11 23:09:00,
2013-06-11 19:12:00,61.5,56.6,29.58,ESE,112,0.0,0.0,84,0.08,,,0.72,WUHU21623XXSP,2013-06-11 23:12:00,
2013-06-11 19:14:00,61.5,57.0,29.59,ESE,112,0.0,0.0,85,0.10,,,0.72,WUHU21623XXSP,2013-06-11 23:14:00,
2013-06-11 19:17:00,61.5,57.0,29.58,ESE,112,0.0,0.0,85,0.10,,,0.74,WUHU21623XXSP,2013-06-11 23:17:00,
2013-06-11 19:18:00,61.3,56.8,29.58,East,90,0.0,0.0,85,0.10,,,0.74,WUHU21623XXSP,2013-06-11 23:18:00,
2013-06-11 19:19:00,61.3,56.8,29.58,East,90,0.0,0.0,85,0.10,,,0.74,WUHU21623XXSP,2013-06-11 23:19:00,
2013-06-11 19:22:00,61.2,56.8,29.58,East,90,0.0,0.0,85,0.10,,,0.74,WUHU21623XXSP,2013-06-11 23:22:00,
2013-06-11 19:23:00,61.2,56.8,29.58,East,90,0.0,0.0,85,0.10,,,0.74,WUHU21623XXSP,2013-06-11 23:23:00,
2013-06-11 19:24:00,61.2,56.8,29.58,East,90,0.0,0.0,85,0.10,,,0.74,WUHU21623XXSP,2013-06-11 23:24:00,
2013-06-11 19:27:00,61.0,56.5,29.58,NW,315,0.0,0.0,85,0.12,,,0.76,WUHU21623XXSP,2013-06-11 23:27:00,
2013-06-11 19:28:00,61.0,56.5,29.58,NW,315,0.0,0.0,85,0.12,,,0.76,WUHU21623XXSP,2013-06-11 23:28:00,
2013-06-11 19:29:00,60.6,56.1,29.58,NW,315,0.0,0.0,85,0.14,,,0.76,WUHU21623XXSP,2013-06-11 23:29:00,
2013-06-11 19:30:00,60.6,56.1,29.58,NW,315,0.0,0.0,85,0.14,,,0.76,WUHU21623XXSP,2013-06-11 23:30:00,
2013-06-11 19:32:00,60.6,56.1,29.58,WSW,247,0.0,0.0,85,0.16,,,0.78,WUHU21623XXSP,2013-06-11 23:32:00,
2013-06-11 19:33:00,60.6,56.1,29.58,West,270,0.0,0.0,85,0.16,,,0.80,WUHU21623XXSP,2013-06-11 23:33:00,
2013-06-11 19:34:00,60.6,56.1,29.58,West,270,0.0,0.0,85,0.16,,,0.80,WUHU21623XXSP,2013-06-11 23:34:00,
2013-06-11 19:35:00,60.6,56.1,29.59,West,270,0.0,0.0,85,0.16,,,0.80,WUHU21623XXSP,2013-06-11 23:35:00,
2013-06-11 19:37:00,60.6,56.4,29.60,North,0,0.0,0.0,86,0.16,,,0.80,WUHU21623XXSP,2013-06-11 23:37:00,
2013-06-11 19:38:00,60.6,56.4,29.60,North,0,0.0,0.0,86,0.16,,,0.80,WUHU21623XXSP,2013-06-11 23:38:00,
2013-06-11 19:40:00,60.4,56.3,29.60,WNW,292,0.9,0.9,86,0.18,,,0.80,WUHU21623XXSP,2013-06-11 23:40:00,
2013-06-11 19:42:00,60.4,56.3,29.60,NW,315,0.0,0.9,86,0.18,,,0.82,WUHU21623XXSP,2013-06-11 23:42:00,
2013-06-11 19:43:00,60.4,56.3,29.60,NW,315,0.0,0.9,86,0.18,,,0.82,WUHU21623XXSP,2013-06-11 23:43:00,
2013-06-11 19:44:00,60.4,56.3,29.61,SW,225,0.0,0.9,86,0.18,,,0.82,WUHU21623XXSP,2013-06-11 23:44:00,
2013-06-11 19:45:00,60.4,56.3,29.61,SW,225,0.0,0.9,86,0.18,,,0.82,WUHU21623XXSP,2013-06-11 23:45:00,
2013-06-11 19:46:00,60.3,56.3,29.61,SW,225,0.0,0.9,86,0.14,,,0.82,WUHU21623XXSP,2013-06-11 23:46:00,
2013-06-11 19:47:00,60.3,56.3,29.61,SW,225,0.0,0.9,86,0.14,,,0.82,WUHU21623XXSP,2013-06-11 23:47:00,
2013-06-11 19:48:00,60.1,56.1,29.60,SW,225,0.0,0.9,86,0.14,,,0.82,WUHU21623XXSP,2013-06-11 23:48:00,
2013-06-11 19:49:00,60.1,56.1,29.60,SW,225,0.0,0.9,86,0.14,,,0.82,WUHU21623XXSP,2013-06-11 23:49:00,
2013-06-11 19:50:00,60.1,55.9,29.58,ESE,112,0.0,0.0,86,0.16,,,0.82,WUHU21623XXSP,2013-06-11 23:50:00,
2013-06-11 19:52:00,60.1,55.9,29.58,ESE,112,0.0,0.0,86,0.16,,,0.82,WUHU21623XXSP,2013-06-11 23:52:00,
2013-06-11 19:53:00,59.9,55.7,29.57,ENE,67,0.0,0.0,86,0.20,,,0.84,WUHU21623XXSP,2013-06-11 23:53:00,
2013-06-11 19:54:00,59.9,55.7,29.57,ENE,67,0.0,0.0,86,0.20,,,0.84,WUHU21623XXSP,2013-06-11 23:54:00,
2013-06-11 19:55:00,59.7,55.2,29.57,NNE,22,0.9,0.9,85,0.22,,,0.88,WUHU21623XXSP,2013-06-11 23:55:00,
2013-06-11 19:57:00,59.5,55.4,29.59,WSW,247,0.9,0.9,86,0.24,,,0.90,WUHU21623XXSP,2013-06-11 23:57:00,
2013-06-11 19:58:00,59.5,55.4,29.59,WSW,247,0.9,0.9,86,0.24,,,0.90,WUHU21623XXSP,2013-06-11 23:58:00,
2013-06-11 19:59:00,59.5,55.4,29.60,WSW,247,0.0,0.9,86,0.29,,,0.94,WUHU21623XXSP,2013-06-11 23:59:00,
2013-06-11 20:01:00,59.4,55.2,29.60,WSW,247,0.0,0.9,86,0.29,,,0.98,WUHU21623XXSP,2013-06-12 00:01:00,
2013-06-11 20:02:00,59.4,55.2,29.60,WSW,247,0.0,0.9,86,0.29,,,0.98,WUHU21623XXSP,2013-06-12 00:02:00,
2013-06-11 20:04:00,59.4,55.2,29.60,SSW,202,0.0,0.9,86,0.29,,,0.98,WUHU21623XXSP,2013-06-12 00:04:00,
2013-06-11 20:05:00,59.2,55.0,29.60,SSW,202,0.0,0.9,86,0.29,,,0.98,WUHU21623XXSP,2013-06-12 00:05:00,
2013-06-11 20:06:00,59.2,55.0,29.60,SSW,202,0.0,0.9,86,0.29,,,0.98,WUHU21623XXSP,2013-06-12 00:06:00,
2013-06-11 20:07:00,59.2,55.0,29.61,SSW,202,0.0,0.0,86,0.31,,,1.00,WUHU21623XXSP,2013-06-12 00:07:00,
2013-06-11 20:09:00,59.2,55.0,29.61,SSW,202,0.0,0.0,86,0.31,,,1.00,WUHU21623XXSP,2013-06-12 00:09:00,
2013-06-11 20:10:00,58.8,54.6,29.60,SSW,202,0.0,0.0,86,0.31,,,1.02,WUHU21623XXSP,2013-06-12 00:10:00,
2013-06-11 20:11:00,58.8,54.6,29.60,SSW,202,0.0,0.0,86,0.31,,,1.02,WUHU21623XXSP,2013-06-12 00:11:00,
2013-06-11 20:12:00,58.8,54.6,29.60,SSE,157,0.0,0.0,86,0.31,,,1.02,WUHU21623XXSP,2013-06-12 00:12:00,
2013-06-11 20:16:00,58.8,54.6,29.59,SE,135,0.0,0.0,86,0.31,,,1.04,WUHU21623XXSP,2013-06-12 00:16:00,
2013-06-11 20:17:00,58.8,54.6,29.59,SE,135,0.0,0.0,86,0.31,,,1.04,WUHU21623XXSP,2013-06-12 00:17:00,
2013-06-11 20:18:00,58.8,54.6,29.59,SE,135,0.0,0.0,86,0.31,,,1.04,WUHU21623XXSP,2013-06-12 00:18:00,
2013-06-11 20:21:00,58.8,54.6,29.59,SE,135,0.0,0.0,86,0.29,,,1.04,WUHU21623XXSP,2013-06-12 00:21:00,
2013-06-11 20:22:00,58.8,55.0,29.59,SE,135,0.0,0.0,87,0.29,,,1.04,WUHU21623XXSP,2013-06-12 00:22:00,
2013-06-11 20:23:00,58.8,55.0,29.59,SE,135,0.0,0.0,87,0.29,,,1.04,WUHU21623XXSP,2013-06-12 00:23:00,
2013-06-11 20:27:00,58.8,55.0,29.59,ESE,112,0.0,0.0,87,0.29,,,1.04,WUHU21623XXSP,2013-06-12 00:27:00,
2013-06-11 20:28:00,58.8,55.0,29.59,ESE,112,0.0,0.0,87,0.29,,,1.04,WUHU21623XXSP,2013-06-12 00:28:00,
2013-06-11 20:29:00,58.8,55.0,29.59,ESE,112,0.0,0.0,87,0.24,,,1.04,WUHU21623XXSP,2013-06-12 00:29:00,
2013-06-11 20:32:00,58.8,55.0,29.59,NNW,337,0.0,0.0,87,0.26,,,1.04,WUHU21623XXSP,2013-06-12 00:32:00,
2013-06-11 20:33:00,58.8,55.0,29.60,NNW,337,0.0,0.0,87,0.26,,,1.06,WUHU21623XXSP,2013-06-12 00:33:00,
2013-06-11 20:34:00,58.8,55.0,29.60,NNW,337,0.0,0.0,87,0.26,,,1.06,WUHU21623XXSP,2013-06-12 00:34:00,
2013-06-11 20:37:00,58.8,55.0,29.60,ESE,112,0.0,0.0,87,0.24,,,1.06,WUHU21623XXSP,2013-06-12 00:37:00,
2013-06-11 20:38:00,58.8,55.0,29.60,ESE,112,0.0,0.0,87,0.24,,,1.06,WUHU21623XXSP,2013-06-12 00:38:00,
2013-06-11 20:40:00,58.8,55.0,29.60,ESE,112,0.0,0.0,87,0.24,,,1.06,WUHU21623XXSP,2013-06-12 00:40:00,
2013-06-11 20:42:00,58.6,55.0,29.61,ESE,112,0.0,0.0,87,0.24,,,1.06,WUHU21623XXSP,2013-06-12 00:42:00,
2013-06-11 20:43:00,58.6,55.0,29.61,ESE,112,0.0,0.0,87,0.24,,,1.06,WUHU21623XXSP,2013-06-12 00:43:00,
2013-06-11 20:44:00,58.6,54.8,29.61,West,270,0.0,0.0,87,0.24,,,1.06,WUHU21623XXSP,2013-06-12 00:44:00,
2013-06-11 20:45:00,58.6,54.8,29.61,West,270,0.0,0.0,87,0.24,,,1.06,WUHU21623XXSP,2013-06-12 00:45:00,
2013-06-11 20:47:00,58.6,54.8,29.61,West,270,0.0,0.0,87,0.24,,,1.06,WUHU21623XXSP,2013-06-12 00:47:00,
2013-06-11 20:48:00,58.6,54.8,29.60,West,270,0.0,0.0,87,0.24,,,1.06,WUHU21623XXSP,2013-06-12 00:48:00,
2013-06-11 20:49:00,58.6,54.8,29.60,West,270,0.0,0.0,87,0.24,,,1.06,WUHU21623XXSP,2013-06-12 00:49:00,
2013-06-11 20:50:00,58.6,54.8,29.60,West,270,0.0,0.0,87,0.24,,,1.06,WUHU21623XXSP,2013-06-12 00:50:00,
2013-06-11 20:53:00,58.6,54.8,29.60,West,270,0.0,0.0,87,0.18,,,1.08,WUHU21623XXSP,2013-06-12 00:53:00,
2013-06-11 20:54:00,58.6,54.8,29.60,West,270,0.0,0.0,87,0.18,,,1.08,WUHU21623XXSP,2013-06-12 00:54:00,
2013-06-11 20:56:00,58.6,54.8,29.60,NW,315,0.0,0.0,87,0.18,,,1.08,WUHU21623XXSP,2013-06-12 00:56:00,
2013-06-11 20:58:00,58.6,54.8,29.60,NW,315,0.0,0.0,87,0.12,,,1.08,WUHU21623XXSP,2013-06-12 00:58:00,
2013-06-11 20:59:00,58.6,54.8,29.60,NW,315,0.0,0.0,87,0.12,,,1.10,WUHU21623XXSP,2013-06-12 00:59:00,
2013-06-11 21:02:00,58.6,54.8,29.60,NW,315,0.0,0.0,87,0.12,,,1.10,WUHU21623XXSP,2013-06-12 01:02:00,
2013-06-11 21:03:00,58.5,54.8,29.60,NW,315,0.0,0.0,87,0.12,,,1.10,WUHU21623XXSP,2013-06-12 01:03:00,
2013-06-11 21:04:00,58.5,54.8,29.60,NW,315,0.0,0.0,87,0.12,,,1.10,WUHU21623XXSP,2013-06-12 01:04:00,
2013-06-11 21:07:00,58.6,54.8,29.60,WNW,292,0.0,0.0,87,0.08,,,1.10,WUHU21623XXSP,2013-06-12 01:07:00,
2013-06-11 21:08:00,58.6,54.8,29.60,WNW,292,0.0,0.0,87,0.08,,,1.10,WUHU21623XXSP,2013-06-12 01:08:00,
2013-06-11 21:09:00,58.5,54.6,29.60,WNW,292,0.0,0.0,87,0.08,,,1.10,WUHU21623XXSP,2013-06-12 01:09:00,
2013-06-11 21:12:00,58.5,54.6,29.60,WNW,292,0.0,0.0,87,0.08,,,1.10,WUHU21623XXSP,2013-06-12 01:12:00,
2013-06-11 21:13:00,58.5,54.6,29.61,WNW,292,0.0,0.0,87,0.06,,,1.10,WUHU21623XXSP,2013-06-12 01:13:00,
2013-06-11 21:14:00,58.5,54.6,29.61,WNW,292,0.0,0.0,87,0.06,,,1.10,WUHU21623XXSP,2013-06-12 01:14:00,
2013-06-11 21:15:00,58.5,54.6,29.61,WNW,292,0.0,0.0,87,0.06,,,1.10,WUHU21623XXSP,2013-06-12 01:15:00,
2013-06-11 21:18:00,58.6,54.8,29.61,SW,225,0.0,0.0,87,0.08,,,1.10,WUHU21623XXSP,2013-06-12 01:18:00,
2013-06-11 21:19:00,58.6,54.8,29.61,SW,225,0.0,0.0,87,0.08,,,1.12,WUHU21623XXSP,2013-06-12 01:19:00,
2013-06-11 21:20:00,58.6,54.8,29.61,SW,225,0.0,0.0,87,0.08,,,1.12,WUHU21623XXSP,2013-06-12 01:20:00,
2013-06-11 21:23:00,58.5,54.6,29.61,SW,225,0.0,0.0,87,0.08,,,1.12,WUHU21623XXSP,2013-06-12 01:23:00,
2013-06-11 21:24:00,58.5,54.6,29.61,SW,225,0.0,0.0,87,0.08,,,1.12,WUHU21623XXSP,2013-06-12 01:24:00,
2013-06-11 21:25:00,58.5,54.6,29.60,SW,225,0.0,0.0,87,0.08,,,1.12,WUHU21623XXSP,2013-06-12 01:25:00,
2013-06-11 21:28:00,58.5,54.9,29.61,SW,225,0.0,0.0,88,0.06,,,1.12,WUHU21623XXSP,2013-06-12 01:28:00,
2013-06-11 21:29:00,58.5,54.9,29.61,SW,225,0.0,0.0,88,0.06,,,1.12,WUHU21623XXSP,2013-06-12 01:29:00,
2013-06-11 21:30:00,58.5,54.9,29.61,SW,225,0.0,0.0,88,0.06,,,1.12,WUHU21623XXSP,2013-06-12 01:30:00,
2013-06-11 21:34:00,58.5,54.9,29.61,SW,225,0.0,0.0,88,0.06,,,1.12,WUHU21623XXSP,2013-06-12 01:34:00,
2013-06-11 21:35:00,58.5,54.9,29.61,SW,225,0.0,0.0,88,0.06,,,1.12,WUHU21623XXSP,2013-06-12 01:35:00,
2013-06-11 21:39:00,58.6,55.1,29.61,SW,225,0.0,0.0,88,0.06,,,1.12,WUHU21623XXSP,2013-06-12 01:39:00,
2013-06-11 21:40:00,58.5,54.9,29.60,SW,225,0.0,0.0,88,0.06,,,1.12,WUHU21623XXSP,2013-06-12 01:40:00,
2013-06-11 21:44:00,58.5,54.9,29.61,SW,225,0.0,0.0,88,0.06,,,1.12,WUHU21623XXSP,2013-06-12 01:44:00,
2013-06-11 21:45:00,58.5,54.9,29.61,SW,225,0.0,0.0,88,0.06,,,1.12,WUHU21623XXSP,2013-06-12 01:45:00,
2013-06-11 21:49:00,58.3,54.8,29.61,SW,225,0.0,0.0,88,0.04,,,1.12,WUHU21623XXSP,2013-06-12 01:49:00,
2013-06-11 21:50:00,58.3,54.8,29.61,SW,225,0.0,0.0,88,0.04,,,1.12,WUHU21623XXSP,2013-06-12 01:50:00,
2013-06-11 21:51:00,58.3,54.8,29.61,SW,225,0.0,0.0,88,0.04,,,1.12,WUHU21623XXSP,2013-06-12 01:51:00,
2013-06-11 21:54:00,58.3,54.8,29.61,SW,225,0.0,0.0,88,0.04,,,1.12,WUHU21623XXSP,2013-06-12 01:54:00,
2013-06-11 21:55:00,58.3,54.8,29.61,SW,225,0.0,0.0,88,0.04,,,1.12,WUHU21623XXSP,2013-06-12 01:55:00,
2013-06-11 21:57:00,58.3,54.8,29.61,SW,225,0.0,0.0,88,0.02,,,1.12,WUHU21623XXSP,2013-06-12 01:57:00,
2013-06-11 22:00:00,58.3,54.8,29.61,SW,225,0.0,0.0,88,0.02,,,1.12,WUHU21623XXSP,2013-06-12 02:00:00,
2013-06-11 22:02:00,58.3,54.8,29.61,SW,225,0.0,0.0,88,0.02,,,1.12,WUHU21623XXSP,2013-06-12 02:02:00,
2013-06-11 22:05:00,58.3,54.8,29.61,SW,225,0.0,0.0,88,0.02,,,1.12,WUHU21623XXSP,2013-06-12 02:05:00,
2013-06-11 22:06:00,58.3,54.8,29.61,SW,225,0.0,0.0,88,0.02,,,1.12,WUHU21623XXSP,2013-06-12 02:06:00,
2013-06-11 22:07:00,58.3,54.8,29.61,SW,225,0.0,0.0,88,0.02,,,1.12,WUHU21623XXSP,2013-06-12 02:07:00,
2013-06-11 22:10:00,58.3,54.8,29.61,SW,225,0.0,0.0,88,0.02,,,1.12,WUHU21623XXSP,2013-06-12 02:10:00,
2013-06-11 22:11:00,58.3,54.8,29.61,SW,225,0.0,0.0,88,0.02,,,1.12,WUHU21623XXSP,2013-06-12 02:11:00,
2013-06-11 22:12:00,58.3,54.8,29.61,SW,225,0.0,0.0,88,0.02,,,1.12,WUHU21623XXSP,2013-06-12 02:12:00,
2013-06-11 22:13:00,58.3,54.8,29.61,SW,225,0.0,0.0,88,0.02,,,1.12,WUHU21623XXSP,2013-06-12 02:13:00,
2013-06-11 22:16:00,58.1,54.6,29.61,SW,225,0.0,0.0,88,0.00,,,1.12,WUHU21623XXSP,2013-06-12 02:16:00,
2013-06-11 22:17:00,58.1,54.6,29.61,SW,225,0.0,0.0,88,0.00,,,1.12,WUHU21623XXSP,2013-06-12 02:17:00,
2013-06-11 22:18:00,58.1,54.6,29.61,SW,225,0.0,0.0,88,0.00,,,1.12,WUHU21623XXSP,2013-06-12 02:18:00,
2013-06-11 22:21:00,58.1,54.6,29.61,SW,225,0.0,0.0,88,0.00,,,1.12,WUHU21623XXSP,2013-06-12 02:21:00,
2013-06-11 22:22:00,58.1,54.6,29.61,SW,225,0.0,0.0,88,0.00,,,1.12,WUHU21623XXSP,2013-06-12 02:22:00,
2013-06-11 22:23:00,58.1,54.6,29.61,SW,225,0.0,0.0,88,0.00,,,1.12,WUHU21623XXSP,2013-06-12 02:23:00,
2013-06-11 22:26:00,58.3,54.8,29.60,SW,225,0.0,0.0,88,0.00,,,1.12,WUHU21623XXSP,2013-06-12 02:26:00,
2013-06-11 22:27:00,58.3,54.8,29.60,SW,225,0.0,0.0,88,0.00,,,1.12,WUHU21623XXSP,2013-06-12 02:27:00,
2013-06-11 22:28:00,58.3,54.8,29.60,SW,225,0.0,0.0,88,0.00,,,1.12,WUHU21623XXSP,2013-06-12 02:28:00,
2013-06-11 22:31:00,58.3,54.8,29.60,SW,225,0.0,0.0,88,0.00,,,1.12,WUHU21623XXSP,2013-06-12 02:31:00,
2013-06-11 22:32:00,58.3,54.8,29.60,SW,225,0.0,0.0,88,0.00,,,1.12,WUHU21623XXSP,2013-06-12 02:32:00,
2013-06-11 22:33:00,58.3,54.8,29.61,SW,225,0.0,0.0,88,0.00,,,1.12,WUHU21623XXSP,2013-06-12 02:33:00,
2013-06-11 22:37:00,58.3,54.8,29.60,SW,225,0.0,0.0,88,0.00,,,1.12,WUHU21623XXSP,2013-06-12 02:37:00,
2013-06-11 22:38:00,58.3,54.8,29.60,SW,225,0.0,0.0,88,0.00,,,1.12,WUHU21623XXSP,2013-06-12 02:38:00,
2013-06-11 22:39:00,58.3,54.8,29.60,SW,225,0.0,0.0,88,0.00,,,1.12,WUHU21623XXSP,2013-06-12 02:39:00,
2013-06-11 22:42:00,58.3,54.8,29.60,SW,225,0.0,0.0,88,0.00,,,1.12,WUHU21623XXSP,2013-06-12 02:42:00,
2013-06-11 22:43:00,58.3,54.8,29.60,SW,225,0.0,0.0,88,0.00,,,1.12,WUHU21623XXSP,2013-06-12 02:43:00,
2013-06-11 22:44:00,58.3,54.8,29.60,SW,225,0.0,0.0,88,0.00,,,1.12,WUHU21623XXSP,2013-06-12 02:44:00,
2013-06-11 22:47:00,58.3,54.8,29.60,SW,225,0.0,0.0,88,0.00,,,1.12,WUHU21623XXSP,2013-06-12 02:47:00,
2013-06-11 22:48:00,58.3,54.8,29.60,SW,225,0.0,0.0,88,0.00,,,1.12,WUHU21623XXSP,2013-06-12 02:48:00,
2013-06-11 22:49:00,58.3,54.8,29.60,SW,225,0.0,0.0,88,0.00,,,1.12,WUHU21623XXSP,2013-06-12 02:49:00,
2013-06-11 22:52:00,58.3,54.8,29.60,SW,225,0.0,0.0,88,0.00,,,1.12,WUHU21623XXSP,2013-06-12 02:52:00,
2013-06-11 22:53:00,58.3,54.8,29.60,SW,225,0.0,0.0,88,0.00,,,1.12,WUHU21623XXSP,2013-06-12 02:53:00,
2013-06-11 22:54:00,58.3,54.8,29.60,SW,225,0.0,0.0,88,0.00,,,1.12,WUHU21623XXSP,2013-06-12 02:54:00,
2013-06-11 22:58:00,58.3,54.8,29.60,SW,225,0.0,0.0,88,0.00,,,1.12,WUHU21623XXSP,2013-06-12 02:58:00,
2013-06-11 22:59:00,58.3,54.8,29.60,SW,225,0.0,0.0,88,0.00,,,1.12,WUHU21623XXSP,2013-06-12 02:59:00,
2013-06-11 23:03:00,58.3,54.8,29.60,SW,225,0.0,0.0,88,0.00,,,1.12,WUHU21623XXSP,2013-06-12 03:03:00,
2013-06-11 23:04:00,58.3,54.8,29.60,SW,225,0.0,0.0,88,0.00,,,1.12,WUHU21623XXSP,2013-06-12 03:04:00,
2013-06-11 23:05:00,58.3,54.8,29.60,SW,225,0.0,0.0,88,0.00,,,1.12,WUHU21623XXSP,2013-06-12 03:05:00,
2013-06-11 23:08:00,58.3,54.8,29.60,SW,225,0.0,0.0,88,0.00,,,1.12,WUHU21623XXSP,2013-06-12 03:08:00,
2013-06-11 23:09:00,58.3,54.8,29.60,SW,225,0.0,0.0,88,0.00,,,1.12,WUHU21623XXSP,2013-06-12 03:09:00,
2013-06-11 23:10:00,58.3,54.8,29.60,SW,225,0.0,0.0,88,0.00,,,1.12,WUHU21623XXSP,2013-06-12 03:10:00,
2013-06-11 23:13:00,58.3,54.8,29.60,SW,225,0.0,0.0,88,0.00,,,1.12,WUHU21623XXSP,2013-06-12 03:13:00,
2013-06-11 23:14:00,58.3,54.8,29.60,SW,225,0.0,0.0,88,0.00,,,1.12,WUHU21623XXSP,2013-06-12 03:14:00,
2013-06-11 23:15:00,58.3,54.8,29.60,SW,225,0.0,0.0,88,0.00,,,1.12,WUHU21623XXSP,2013-06-12 03:15:00,
2013-06-11 23:16:00,58.3,54.8,29.60,SW,225,0.0,0.0,88,0.00,,,1.12,WUHU21623XXSP,2013-06-12 03:16:00,
2013-06-11 23:18:00,58.1,54.6,29.60,SW,225,0.0,0.0,88,0.00,,,1.12,WUHU21623XXSP,2013-06-12 03:18:00,
2013-06-11 23:19:00,58.1,54.6,29.60,SW,225,0.0,0.0,88,0.00,,,1.12,WUHU21623XXSP,2013-06-12 03:19:00,
2013-06-11 23:20:00,58.1,54.6,29.60,SW,225,0.0,0.0,88,0.00,,,1.12,WUHU21623XXSP,2013-06-12 03:20:00,
2013-06-11 23:22:00,58.1,54.6,29.60,SW,225,0.0,0.0,88,0.00,,,1.12,WUHU21623XXSP,2013-06-12 03:22:00,
2013-06-11 23:24:00,58.1,54.6,29.60,SW,225,0.0,0.0,88,0.00,,,1.12,WUHU21623XXSP,2013-06-12 03:24:00,
2013-06-11 23:25:00,58.1,54.6,29.60,SW,225,0.0,0.0,88,0.00,,,1.12,WUHU21623XXSP,2013-06-12 03:25:00,
2013-06-11 23:27:00,57.9,54.6,29.60,SW,225,0.0,0.0,88,0.00,,,1.12,WUHU21623XXSP,2013-06-12 03:27:00,
2013-06-11 23:29:00,57.9,54.4,29.59,SW,225,0.0,0.0,88,0.00,,,1.12,WUHU21623XXSP,2013-06-12 03:29:00,
2013-06-11 23:30:00,57.9,54.4,29.59,SW,225,0.0,0.0,88,0.00,,,1.12,WUHU21623XXSP,2013-06-12 03:30:00,
2013-06-11 23:32:00,58.1,54.4,29.60,SW,225,0.0,0.0,88,0.00,,,1.12,WUHU21623XXSP,2013-06-12 03:32:00,
2013-06-11 23:34:00,58.1,54.4,29.60,SW,225,0.0,0.0,88,0.00,,,1.12,WUHU21623XXSP,2013-06-12 03:34:00,
2013-06-11 23:35:00,58.1,54.4,29.60,SW,225,0.0,0.0,88,0.00,,,1.12,WUHU21623XXSP,2013-06-12 03:35:00,
2013-06-11 23:36:00,57.9,54.4,29.59,SW,225,0.0,0.0,88,0.00,,,1.12,WUHU21623XXSP,2013-06-12 03:36:00,
2013-06-11 23:38:00,58.1,54.6,29.60,SW,225,0.0,0.0,88,0.00,,,1.12,WUHU21623XXSP,2013-06-12 03:38:00,
2013-06-11 23:39:00,57.9,54.6,29.59,SW,225,0.0,0.0,88,0.00,,,1.12,WUHU21623XXSP,2013-06-12 03:39:00,
2013-06-11 23:40:00,57.9,54.6,29.59,SW,225,0.0,0.0,88,0.00,,,1.12,WUHU21623XXSP,2013-06-12 03:40:00,
2013-06-11 23:41:00,57.9,54.6,29.59,SW,225,0.0,0.0,88,0.00,,,1.12,WUHU21623XXSP,2013-06-12 03:41:00,
2013-06-11 23:45:00,57.9,54.4,29.59,SW,225,0.0,0.0,88,0.00,,,1.12,WUHU21623XXSP,2013-06-12 03:45:00,
2013-06-11 23:47:00,58.1,54.4,29.59,SW,225,0.0,0.0,88,0.00,,,1.12,WUHU21623XXSP,2013-06-12 03:47:00,
2013-06-11 23:50:00,58.1,54.6,29.60,SW,225,0.0,0.0,88,0.00,,,1.12,WUHU21623XXSP,2013-06-12 03:50:00,
2013-06-11 23:51:00,58.1,54.6,29.60,SW,225,0.0,0.0,88,0.00,,,1.12,WUHU21623XXSP,2013-06-12 03:51:00,
2013-06-11 23:52:00,58.1,54.6,29.60,SW,225,0.0,0.0,88,0.00,,,1.12,WUHU21623XXSP,2013-06-12 03:52:00,
2013-06-11 23:55:00,58.1,54.6,29.59,SW,225,0.0,0.0,88,0.00,,,1.12,WUHU21623XXSP,2013-06-12 03:55:00,
2013-06-11 23:56:00,58.1,54.6,29.59,SW,225,0.0,0.0,88,0.00,,,1.12,WUHU21623XXSP,2013-06-12 03:56:00,
2013-06-11 23:57:00,58.1,54.6,29.60,SW,225,0.0,0.0,88,0.00,,,1.12,WUHU21623XXSP,2013-06-12 03:57:00,